Observation Tools

American elm Photo courtesy of Steve Baskauf, Vanderbilt University, bioimages.vanderbilt.edu.

American elm (Ulmus americana)


Plant Family: Elm (Ulmaceae)
Project BudBurst Plant Group: Deciduous Trees and Shrubs

Identification Hints: The American elm is a tree whichcan grow up to 100 feet tall. It is found over much of the easternUnited States, as far north as Maine and as far south as Texas. Its range extends west into Montana andWyoming. The flowers of the American elm emerge before the leaves, so keep a close eye on them inthe spring. The flowers are small and purplish-brown in color.

Did you Know? American elm was first described by Carolus Linneaus in 1753. The flowers are small, purplish-brown and very inconspicous. The flowers are wind-pollinated and do not have any petals. The fruits are flat and round with a seed encapsulated in a papery, wing-like outer covering. This fruit type is considered a samara by botanists. The fruits also rely on wind for dispersal.


Live Map for American elm

Other years available for viewing:

Below you can view all observations that have been reported in for American elm (If the map below is empty then there have not been any observations reported.)

Use the navigation buttons on the left to zoom in/out and pan around. Click on each place marker to get detail information about that observation.

Leaf/Needles/Stalk = Leaf/Needles/Stalk Flower = Flower Pollen = Pollen Fruiting = Fruiting Color = Color

--Back to Top--

close help window button

The table below displays all the data that has been submitted to Project BudBurst. By default, the data is sorted by the date on which the phenophase occurred. Clicking the up and down arrows next to each column name allows you to sort on any value. If there have been more than 10 observations submitted, you can choose how many to display at a time using the "Show __ entries" control. You can also page through the data using the previous and next buttons at the bottom right of the table.

The Search box allows you to search all of the data. Searching by date, species, phenophase, etc. is easy—just start typing and the table will immediately change to contain only observations that contain your search phrase. Do you want to see only 2012 observations? Just type "2012" in the search box. Only want to see maples? Enter "Acer." You can combine searches, too! Searching for "acer 2012" will narrow your results to only the maples that were observed in 2012 (assuming that any observations exist, of course).

Once you have your results in the order desired, you can use any of the buttons above the search box to copy the results to the clipboard; save them as a text, or spreadsheet; or even print them from your browser!

Observational data for American elm:

help button
Date Contributor Common Name Species Phenophase Latitude Longitude Obs#
Wed May 25 00:00:00 GMT 2011 sbank03 American elm Ulmus americana Full Fruiting 33.794100000000000 -84.315000000000000 12672
Sat Sep 17 00:00:00 GMT 2011 palaback American elm Ulmus americana Leaves Changing Color (Early) 40.308300000000000 -105.081000000000000 13289
Sun Sep 18 00:00:00 GMT 2011 palaback American elm Ulmus americana Leaves Changing Color (Early) 40.307500000000000 -105.084000000000000 13257
Wed Oct 05 00:00:00 GMT 2011 cralston American elm Ulmus americana Leaves Changing Color (Early) 47.923800000000000 -97.053900000000000 13512
Mon Oct 17 00:00:00 GMT 2011 palaback American elm Ulmus americana Leaves Changing Color (Middle) 40.305600000000000 -105.083000000000000 13689
Sun Apr 01 00:00:00 GMT 2012 palaback American elm Ulmus americana Flowers (Middle) 40.308300000000000 -105.081000000000000 14634
Thu Apr 19 00:00:00 GMT 2012 Erin_VS American elm Ulmus americana Leaves Unfolding (Early) 41.815900000000000 -88.056900000000000 15108
Sun Apr 29 00:00:00 GMT 2012 dipp293 American elm Ulmus americana Leaves Unfolding (Middle) 42.571700000000000 -70.777200000000000 15353
Wed Sep 26 00:00:00 GMT 2012 ricktig American elm Ulmus americana Fruit (Late) 39.500000000000000 -105.500000000000000 16753
Sat Sep 29 00:00:00 GMT 2012 wendy American elm Ulmus americana 50% Color 42.043100000000000 -87.687700000000000 16761
Mon Oct 15 00:00:00 GMT 2012 wendy American elm Ulmus americana 50% Leaf Fall 42.043100000000000 -87.687700000000000 17051
Sat Mar 07 00:00:00 GMT 2009 gmwimp American elm Ulmus americana Bud Burst 38.908400000000000 -77.072500000000000 17990
Fri Apr 17 00:00:00 GMT 2009 gmwimp American elm Ulmus americana First Leaf 38.908400000000000 -77.072500000000000 17991
Mon Apr 27 00:00:00 GMT 2009 gmwimp American elm Ulmus americana All Leaves Unfolded 38.908400000000000 -77.072500000000000 17992
Sat Mar 07 00:00:00 GMT 2009 gmwimp American elm Ulmus americana First Flower 38.908400000000000 -77.072500000000000 17993
Fri Mar 13 00:00:00 GMT 2009 gmwimp American elm Ulmus americana Full Flower 38.908400000000000 -77.072500000000000 17994
Sat Mar 09 00:00:00 GMT 2013 csunkissed1 American elm Ulmus americana Bud Burst 40.071100000000000 -75.302100000000000 18174
Tue Mar 19 00:00:00 GMT 2013 kgarbach_Loyola_University_Chicago_reporter26 American elm Ulmus americana Leaves Unfolding (Early) 42.000700000000000 -87.656600000000000 18178
Tue Mar 12 00:00:00 GMT 2013 kgarbach_Loyola_University_Chicago_reporter26 American elm Ulmus americana Leaves Unfolding (Early) 41.178700000000000 -88.082900000000000 18177
Thu Mar 21 00:00:00 GMT 2013 DCub_CP_reporter13 American elm Ulmus americana Leaves Unfolding (Early) 39.948000000000000 -75.209600000000000 18222
Thu Mar 21 00:00:00 GMT 2013 DCub_CP_reporter13 American elm Ulmus americana Leaves Unfolding (Early) 39.948000000000000 -75.209600000000000 18223
Sun Feb 24 00:00:00 GMT 2013 bgagsIU American elm Ulmus americana Bud Burst 39.176600000000000 -86.530400000000000 18592
Tue Apr 16 00:00:00 GMT 2013 ebruce15 American elm Ulmus americana Bud Burst 33.995800000000000 -84.245200000000000 18976
Sun Apr 14 00:00:00 GMT 2013 wendy American elm Ulmus americana Bud Burst 42.043100000000000 -87.687700000000000 18966
Fri Apr 19 00:00:00 GMT 2013 ecc912 American elm Ulmus americana Bud Burst 41.748500000000000 -72.691300000000000 19448
Mon Apr 22 00:00:00 GMT 2013 ecc912 American elm Ulmus americana First Leaf 41.748500000000000 -72.691300000000000 19449
Sun Apr 28 00:00:00 GMT 2013 ecc912 American elm Ulmus americana All Leaves Unfolded 41.748500000000000 -72.691300000000000 19450
Thu Mar 28 00:00:00 GMT 2013 cwooster American elm Ulmus americana Bud Burst 41.747100000000000 -72.690400000000000 19827
Sun Apr 28 00:00:00 GMT 2013 cwooster American elm Ulmus americana First Leaf 41.747100000000000 -72.690400000000000 19828
Sun May 05 00:00:00 GMT 2013 cwooster American elm Ulmus americana All Leaves Unfolded 41.747100000000000 -72.690400000000000 19829
Thu Sep 12 00:00:00 GMT 2013 brydel_New_Branches_reporter32 American elm Ulmus americana Full Fruiting 42.895800000000000 -85.635200000000000 22023
Thu Sep 12 00:00:00 GMT 2013 brydel_New_Branches_reporter32 American elm Ulmus americana Full Fruiting 42.895800000000000 -85.635200000000000 22024
Thu Sep 12 00:00:00 GMT 2013 brydel_New_Branches_reporter31 American elm Ulmus americana Full Fruiting 42.895800000000000 -85.635200000000000 22022
Tue Sep 24 00:00:00 GMT 2013 lanzitk American elm Ulmus americana Leaves Changing Color (Early) 42.818800000000000 -73.927300000000000 22118
Thu Oct 03 00:00:00 GMT 2013 mlui306 American elm Ulmus americana 50% Color 39.200400000000000 -77.288300000000000 22491
Tue Oct 15 00:00:00 GMT 2013 fuo213 American elm Ulmus americana Leaves Dropping (Late) 40.580900000000000 -105.075000000000000 22593
Tue Oct 29 00:00:00 GMT 2013 robinv1_Washington_College_reporter13 American elm Ulmus americana 50% Color 39.219200000000000 -76.069600000000000 22817
Wed Nov 06 00:00:00 GMT 2013 robinv1_Washington_College_reporter13 American elm Ulmus americana 50% Leaf Fall 39.219200000000000 -76.069600000000000 23012
Fri Nov 01 00:00:00 GMT 2013 sisaacso American elm Ulmus americana 50% Color 39.055600000000000 -86.161100000000000 23200
Mon Nov 04 00:00:00 GMT 2013 sisaacso American elm Ulmus americana 50% Leaf Fall 39.055600000000000 -86.161100000000000 23201
Fri Nov 08 00:00:00 GMT 2013 lillianferch American elm Ulmus americana 50% Color 39.096000000000000 -86.001000000000000 23537
Thu Nov 14 00:00:00 GMT 2013 lillianferch American elm Ulmus americana 50% Leaf Fall 39.096000000000000 -86.001000000000000 23538
Fri Oct 18 00:00:00 GMT 2013 robinv1_Washington_College_reporter5 American elm Ulmus americana 50% Color 39.219200000000000 -76.069600000000000 24237
Mon Dec 02 00:00:00 GMT 2013 robinv1_Washington_College_reporter5 American elm Ulmus americana 50% Leaf Fall 39.219200000000000 -76.069600000000000 24238
Wed Oct 30 00:00:00 GMT 2013 robinv1_Washington_College_reporter8 American elm Ulmus americana 50% Color 39.219200000000000 -76.069600000000000 24261
Mon Sep 16 00:00:00 GMT 2013 robinv1_Washington_College_reporter28 American elm Ulmus americana All Leaves Unfolded 39.219200000000000 -76.069600000000000 24316
Sun Oct 27 00:00:00 GMT 2013 robinv1_Washington_College_reporter28 American elm Ulmus americana 50% Color 39.219200000000000 -76.069600000000000 24317
Tue Oct 29 00:00:00 GMT 2013 robinv1_Washington_College_reporter28 American elm Ulmus americana 50% Leaf Fall 39.219200000000000 -76.069600000000000 24318
Mon Sep 16 00:00:00 GMT 2013 robinv1_Washington_College_reporter28 American elm Ulmus americana All Leaves Unfolded 39.219200000000000 -76.069600000000000 24313
Sun Oct 27 00:00:00 GMT 2013 robinv1_Washington_College_reporter28 American elm Ulmus americana 50% Color 39.219200000000000 -76.069600000000000 24314
Tue Oct 29 00:00:00 GMT 2013 robinv1_Washington_College_reporter28 American elm Ulmus americana 50% Leaf Fall 39.219200000000000 -76.069600000000000 24315
Wed Feb 26 00:00:00 GMT 2014 naturalist American elm Ulmus americana Leaves Unfolding (None) 35.222400000000000 -80.777900000000000 25841
Wed Feb 26 00:00:00 GMT 2014 naturalist American elm Ulmus americana Leaves Changing Color (None) 35.222400000000000 -80.777900000000000 25842
Wed Feb 26 00:00:00 GMT 2014 naturalist American elm Ulmus americana Leaves Dropping (None) 35.222400000000000 -80.777900000000000 25843
Wed Feb 26 00:00:00 GMT 2014 naturalist American elm Ulmus americana Flowers (Early) 35.222400000000000 -80.777900000000000 25844
Wed Feb 26 00:00:00 GMT 2014 naturalist American elm Ulmus americana Fruit (None) 35.222400000000000 -80.777900000000000 25845
Tue Mar 25 00:00:00 GMT 2014 cwilliams American elm Ulmus americana Leaves Unfolding (None) 39.602800000000000 -105.005000000000000 27505
Tue Mar 25 00:00:00 GMT 2014 cwilliams American elm Ulmus americana Leaves Changing Color (None) 39.602800000000000 -105.005000000000000 27506
Tue Mar 25 00:00:00 GMT 2014 cwilliams American elm Ulmus americana Leaves Dropping (None) 39.602800000000000 -105.005000000000000 27507
Tue Mar 25 00:00:00 GMT 2014 cwilliams American elm Ulmus americana Flowers (Early) 39.602800000000000 -105.005000000000000 27508
Tue Mar 25 00:00:00 GMT 2014 cwilliams American elm Ulmus americana Fruit (None) 39.602800000000000 -105.005000000000000 27509
Sat Mar 15 00:00:00 GMT 2014 kford0069@kctcs.edu American elm Ulmus americana Leaves Unfolding (Early) 32.468100000000000 -96.826300000000000 27546
Sat Mar 15 00:00:00 GMT 2014 kford0069@kctcs.edu American elm Ulmus americana Leaves Changing Color (Middle) 32.468100000000000 -96.826300000000000 27547
Sat Mar 15 00:00:00 GMT 2014 kford0069@kctcs.edu American elm Ulmus americana Leaves Dropping (Early) 32.468100000000000 -96.826300000000000 27548
Sat Mar 15 00:00:00 GMT 2014 kford0069@kctcs.edu American elm Ulmus americana Flowers (Early) 32.468100000000000 -96.826300000000000 27549
Sat Mar 15 00:00:00 GMT 2014 kford0069@kctcs.edu American elm Ulmus americana Fruit (None) 32.468100000000000 -96.826300000000000 27550
Thu Mar 27 00:00:00 GMT 2014 pghbotanicgarden American elm Ulmus americana Leaves Unfolding (None) 40.417100000000000 -80.169300000000000 27588
Thu Mar 27 00:00:00 GMT 2014 pghbotanicgarden American elm Ulmus americana Leaves Changing Color (None) 40.417100000000000 -80.169300000000000 27589
Thu Mar 27 00:00:00 GMT 2014 pghbotanicgarden American elm Ulmus americana Leaves Dropping (None) 40.417100000000000 -80.169300000000000 27590
Thu Mar 27 00:00:00 GMT 2014 pghbotanicgarden American elm Ulmus americana Flowers (None) 40.417100000000000 -80.169300000000000 27591
Thu Mar 27 00:00:00 GMT 2014 pghbotanicgarden American elm Ulmus americana Fruit (None) 40.417100000000000 -80.169300000000000 27592
Tue Apr 01 00:00:00 GMT 2014 hausbaun American elm Ulmus americana Full Flower 39.218733000000000 -76.645925000000000 27997
Thu Apr 10 00:00:00 GMT 2014 neddie American elm Ulmus americana Leaves Unfolding (None) 40.789764000000000 -73.956678000000000 28747
Thu Apr 10 00:00:00 GMT 2014 neddie American elm Ulmus americana Leaves Changing Color (None) 40.789764000000000 -73.956678000000000 28748
Thu Apr 10 00:00:00 GMT 2014 neddie American elm Ulmus americana Leaves Dropping (None) 40.789764000000000 -73.956678000000000 28749
Thu Apr 10 00:00:00 GMT 2014 neddie American elm Ulmus americana Flowers (Early) 40.789764000000000 -73.956678000000000 28750
Thu Apr 10 00:00:00 GMT 2014 neddie American elm Ulmus americana Fruit (None) 40.789764000000000 -73.956678000000000 28751
Fri Apr 11 00:00:00 GMT 2014 gyllenfish American elm Ulmus americana Bud Burst 41.870540000000000 -87.785700000000000 29230
Fri Apr 11 00:00:00 GMT 2014 gyllenfish American elm Ulmus americana First Flower 41.870540000000000 -87.785700000000000 29231
Sun Apr 13 00:00:00 GMT 2014 gyllenfish American elm Ulmus americana Full Flower 41.870540000000000 -87.785700000000000 29232
Mon Apr 14 00:00:00 GMT 2014 kapittman American elm Ulmus americana Leaves Unfolding (None) 39.196600000000000 -86.511700000000000 29064
Mon Apr 14 00:00:00 GMT 2014 kapittman American elm Ulmus americana Leaves Changing Color (None) 39.196600000000000 -86.511700000000000 29065
Mon Apr 14 00:00:00 GMT 2014 kapittman American elm Ulmus americana Leaves Dropping (Early) 39.196600000000000 -86.511700000000000 29066
Mon Apr 14 00:00:00 GMT 2014 kapittman American elm Ulmus americana Flowers (None) 39.196600000000000 -86.511700000000000 29067
Mon Apr 14 00:00:00 GMT 2014 kapittman American elm Ulmus americana Fruit (None) 39.196600000000000 -86.511700000000000 29068
Mon Apr 07 00:00:00 GMT 2014 kimladd American elm Ulmus americana Leaves Unfolding (None) 39.164552000000000 -86.519922000000000 29117
Mon Apr 07 00:00:00 GMT 2014 kimladd American elm Ulmus americana Leaves Changing Color (None) 39.164552000000000 -86.519922000000000 29118
Mon Apr 07 00:00:00 GMT 2014 kimladd American elm Ulmus americana Leaves Dropping (None) 39.164552000000000 -86.519922000000000 29119
Mon Apr 07 00:00:00 GMT 2014 kimladd American elm Ulmus americana Flowers (Early) 39.164552000000000 -86.519922000000000 29120
Mon Apr 07 00:00:00 GMT 2014 kimladd American elm Ulmus americana Fruit (Early) 39.164552000000000 -86.519922000000000 29121
Wed Apr 16 00:00:00 GMT 2014 IUTF2014 American elm Ulmus americana Leaves Unfolding (None) 39.177849000000000 -86.519608000000000 29445
Wed Apr 16 00:00:00 GMT 2014 IUTF2014 American elm Ulmus americana Leaves Changing Color (None) 39.177849000000000 -86.519608000000000 29446
Wed Apr 16 00:00:00 GMT 2014 IUTF2014 American elm Ulmus americana Leaves Dropping (None) 39.177849000000000 -86.519608000000000 29447
Wed Apr 16 00:00:00 GMT 2014 IUTF2014 American elm Ulmus americana Flowers (None) 39.177849000000000 -86.519608000000000 29448
Wed Apr 16 00:00:00 GMT 2014 IUTF2014 American elm Ulmus americana Fruit (None) 39.177849000000000 -86.519608000000000 29449
Wed Apr 16 00:00:00 GMT 2014 IUTF2014 American elm Ulmus americana Leaves Unfolding (None) 39.181009000000000 -86.519651000000000 29450
Wed Apr 16 00:00:00 GMT 2014 IUTF2014 American elm Ulmus americana Leaves Unfolding (None) 39.178215000000000 -86.519394000000000 29435
Wed Apr 16 00:00:00 GMT 2014 IUTF2014 American elm Ulmus americana Leaves Changing Color (None) 39.178215000000000 -86.519394000000000 29436
Wed Apr 16 00:00:00 GMT 2014 IUTF2014 American elm Ulmus americana Leaves Dropping (None) 39.178215000000000 -86.519394000000000 29437
Wed Apr 16 00:00:00 GMT 2014 IUTF2014 American elm Ulmus americana Leaves Changing Color (None) 39.181009000000000 -86.519651000000000 29451
Wed Apr 16 00:00:00 GMT 2014 IUTF2014 American elm Ulmus americana Leaves Dropping (None) 39.181009000000000 -86.519651000000000 29452
Wed Apr 16 00:00:00 GMT 2014 IUTF2014 American elm Ulmus americana Flowers (None) 39.181009000000000 -86.519651000000000 29453
Wed Apr 16 00:00:00 GMT 2014 IUTF2014 American elm Ulmus americana Flowers (None) 39.178215000000000 -86.519394000000000 29438
Wed Apr 16 00:00:00 GMT 2014 IUTF2014 American elm Ulmus americana Fruit (None) 39.178215000000000 -86.519394000000000 29439
Wed Apr 16 00:00:00 GMT 2014 IUTF2014 American elm Ulmus americana Fruit (None) 39.181009000000000 -86.519651000000000 29454
Wed Apr 16 00:00:00 GMT 2014 IUTF2014 American elm Ulmus americana Leaves Unfolding (None) 39.177749000000000 -86.519437000000000 29440
Wed Apr 16 00:00:00 GMT 2014 IUTF2014 American elm Ulmus americana Leaves Changing Color (None) 39.177749000000000 -86.519437000000000 29441
Wed Apr 16 00:00:00 GMT 2014 IUTF2014 American elm Ulmus americana Leaves Dropping (None) 39.177749000000000 -86.519437000000000 29442
Wed Apr 16 00:00:00 GMT 2014 IUTF2014 American elm Ulmus americana Flowers (None) 39.177749000000000 -86.519437000000000 29443
Wed Apr 16 00:00:00 GMT 2014 IUTF2014 American elm Ulmus americana Fruit (None) 39.177749000000000 -86.519437000000000 29444
Sun Apr 13 00:00:00 GMT 2014 pghbotanicgarden American elm Ulmus americana Bud Burst 40.417200000000000 -80.169800000000000 29580
Wed Apr 23 00:00:00 GMT 2014 brydel_New_Branches_reporter54 American elm Ulmus americana Bud Burst 42.895800000000000 -85.635200000000000 30347
Fri Sep 13 00:00:00 GMT 2013 brydel_New_Branches_reporter54 American elm Ulmus americana All Leaves Unfolded 42.895800000000000 -85.635200000000000 30348
Fri Oct 11 00:00:00 GMT 2013 brydel_New_Branches_reporter54 American elm Ulmus americana 50% Color 42.895800000000000 -85.635200000000000 30349
Thu Dec 05 00:00:00 GMT 2013 brydel_New_Branches_reporter54 American elm Ulmus americana 50% Leaf Fall 42.895800000000000 -85.635200000000000 30350
Thu May 01 00:00:00 GMT 2014 Philiplunt American elm Ulmus americana Leaves Unfolding (Early) 37.618650000000000 -98.849670000000000 31047
Thu May 01 00:00:00 GMT 2014 Philiplunt American elm Ulmus americana Leaves Changing Color (None) 37.618650000000000 -98.849670000000000 31048
Thu May 01 00:00:00 GMT 2014 Philiplunt American elm Ulmus americana Leaves Dropping (None) 37.618650000000000 -98.849670000000000 31049
Thu May 01 00:00:00 GMT 2014 Philiplunt American elm Ulmus americana Flowers (None) 37.618650000000000 -98.849670000000000 31050
Thu May 01 00:00:00 GMT 2014 Philiplunt American elm Ulmus americana Fruit (None) 37.618650000000000 -98.849670000000000 31051
Sun Apr 27 00:00:00 GMT 2014 pghbotanicgarden American elm Ulmus americana First Leaf 40.417200000000000 -80.169800000000000 31278
Mon May 05 00:00:00 GMT 2014 keighan.mcgoff American elm Ulmus americana Bud Burst 42.316200000000000 -71.084500000000000 32130
Fri May 09 00:00:00 GMT 2014 keighan.mcgoff American elm Ulmus americana First Leaf 42.316200000000000 -71.084500000000000 32131
Mon Sep 16 00:00:00 GMT 2013 keighan.mcgoff American elm Ulmus americana 50% Color 42.316200000000000 -71.084500000000000 32132
Tue Oct 01 00:00:00 GMT 2013 keighan.mcgoff American elm Ulmus americana 50% Leaf Fall 42.316200000000000 -71.084500000000000 32133
Wed May 14 00:00:00 GMT 2014 hyurchenco American elm Ulmus americana Leaves Unfolding (Early) 44.820320000000000 -73.091800000000000 32988
Wed May 14 00:00:00 GMT 2014 hyurchenco American elm Ulmus americana Leaves Changing Color (None) 44.820320000000000 -73.091800000000000 32989
Wed May 14 00:00:00 GMT 2014 hyurchenco American elm Ulmus americana Leaves Dropping (None) 44.820320000000000 -73.091800000000000 32990
Wed May 14 00:00:00 GMT 2014 hyurchenco American elm Ulmus americana Flowers (None) 44.820320000000000 -73.091800000000000 32991
Wed May 14 00:00:00 GMT 2014 hyurchenco American elm Ulmus americana Fruit (None) 44.820320000000000 -73.091800000000000 32992
Wed Sep 10 00:00:00 GMT 2014 Jesusfreak13 American elm Ulmus americana Leaves Unfolding (None) 35.533937000000000 -98.706601000000000 35262
Wed Sep 10 00:00:00 GMT 2014 Jesusfreak13 American elm Ulmus americana Leaves Changing Color (None) 35.533937000000000 -98.706601000000000 35263
Wed Sep 10 00:00:00 GMT 2014 Jesusfreak13 American elm Ulmus americana Leaves Dropping (None) 35.533937000000000 -98.706601000000000 35264
Wed Sep 10 00:00:00 GMT 2014 Jesusfreak13 American elm Ulmus americana Flowers (None) 35.533937000000000 -98.706601000000000 35265
Wed Sep 10 00:00:00 GMT 2014 Jesusfreak13 American elm Ulmus americana Fruit (None) 35.533937000000000 -98.706601000000000 35266
Thu Sep 11 00:00:00 GMT 2014 MKM_Walled_Lake_Central_HS_Swamp_reporter14 American elm Ulmus americana Leaves Unfolding (Late) 42.567104000000000 -83.470341000000000 35282
Thu Sep 11 00:00:00 GMT 2014 MKM_Walled_Lake_Central_HS_Swamp_reporter14 American elm Ulmus americana Leaves Changing Color (None) 42.567104000000000 -83.470341000000000 35283
Thu Sep 11 00:00:00 GMT 2014 MKM_Walled_Lake_Central_HS_Swamp_reporter14 American elm Ulmus americana Leaves Dropping (None) 42.567104000000000 -83.470341000000000 35284
Thu Sep 11 00:00:00 GMT 2014 MKM_Walled_Lake_Central_HS_Swamp_reporter14 American elm Ulmus americana Flowers (None) 42.567104000000000 -83.470341000000000 35285
Thu Sep 11 00:00:00 GMT 2014 MKM_Walled_Lake_Central_HS_Swamp_reporter14 American elm Ulmus americana Fruit (None) 42.567104000000000 -83.470341000000000 35286
Thu Sep 11 00:00:00 GMT 2014 MKM_Walled_Lake_Central_HS_Swamp_reporter25 American elm Ulmus americana Leaves Unfolding (Late) 42.567105000000000 -83.470201000000000 35272
Thu Sep 11 00:00:00 GMT 2014 MKM_Walled_Lake_Central_HS_Swamp_reporter25 American elm Ulmus americana Leaves Changing Color (None) 42.567105000000000 -83.470201000000000 35273
Thu Sep 11 00:00:00 GMT 2014 MKM_Walled_Lake_Central_HS_Swamp_reporter25 American elm Ulmus americana Leaves Dropping (None) 42.567105000000000 -83.470201000000000 35274
Thu Sep 11 00:00:00 GMT 2014 MKM_Walled_Lake_Central_HS_Swamp_reporter25 American elm Ulmus americana Flowers (None) 42.567105000000000 -83.470201000000000 35275
Thu Sep 11 00:00:00 GMT 2014 MKM_Walled_Lake_Central_HS_Swamp_reporter25 American elm Ulmus americana Fruit (None) 42.567105000000000 -83.470201000000000 35276
Fri Oct 03 00:00:00 GMT 2014 crmill American elm Ulmus americana Leaves Unfolding (Late) 39.191100000000000 -96.619310000000000 35968
Fri Oct 03 00:00:00 GMT 2014 crmill American elm Ulmus americana Leaves Changing Color (Early) 39.191100000000000 -96.619310000000000 35969
Fri Oct 03 00:00:00 GMT 2014 crmill American elm Ulmus americana Leaves Dropping (Early) 39.191100000000000 -96.619310000000000 35970
Fri Oct 03 00:00:00 GMT 2014 crmill American elm Ulmus americana Flowers (None) 39.191100000000000 -96.619310000000000 35971
Fri Oct 03 00:00:00 GMT 2014 crmill American elm Ulmus americana Fruit (None) 39.191100000000000 -96.619310000000000 35972
Tue Oct 07 00:00:00 GMT 2014 nlozon American elm Ulmus americana 50% Color 38.987701000000000 -76.942170000000000 36554
Fri Oct 03 00:00:00 GMT 2014 AliviaCurnel American elm Ulmus americana Leaves Unfolding (None) 37.228390000000000 -88.380380000000000 36957
Fri Oct 03 00:00:00 GMT 2014 AliviaCurnel American elm Ulmus americana Leaves Changing Color (Middle) 37.228390000000000 -88.380380000000000 36958
Fri Oct 03 00:00:00 GMT 2014 AliviaCurnel American elm Ulmus americana Leaves Dropping (Late) 37.228390000000000 -88.380380000000000 36959
Fri Oct 03 00:00:00 GMT 2014 AliviaCurnel American elm Ulmus americana Flowers (None) 37.228390000000000 -88.380380000000000 36960
Fri Oct 03 00:00:00 GMT 2014 AliviaCurnel American elm Ulmus americana Fruit (None) 37.228390000000000 -88.380380000000000 36961
Wed Oct 15 00:00:00 GMT 2014 DNeuworth American elm Ulmus americana All Leaves Unfolded 38.991431000000000 -76.942071000000000 37284
Thu Oct 09 00:00:00 GMT 2014 spentzosinghram_Catherine_Cook_School_reporter22 American elm Ulmus americana Leaves Unfolding (None) 41.907760000000000 -87.635850000000000 37528
Thu Oct 09 00:00:00 GMT 2014 spentzosinghram_Catherine_Cook_School_reporter22 American elm Ulmus americana Leaves Changing Color (Middle) 41.907760000000000 -87.635850000000000 37540
Thu Oct 09 00:00:00 GMT 2014 spentzosinghram_Catherine_Cook_School_reporter22 American elm Ulmus americana Leaves Dropping (Middle) 41.907760000000000 -87.635850000000000 37550
Thu Oct 09 00:00:00 GMT 2014 spentzosinghram_Catherine_Cook_School_reporter22 American elm Ulmus americana Flowers (None) 41.907760000000000 -87.635850000000000 37558
Thu Oct 09 00:00:00 GMT 2014 spentzosinghram_Catherine_Cook_School_reporter22 American elm Ulmus americana Fruit (None) 41.907760000000000 -87.635850000000000 37563
Fri Oct 17 00:00:00 GMT 2014 rshuman American elm Ulmus americana Leaves Unfolding (Late) 44.707910000000000 -73.678620000000000 38199
Fri Oct 17 00:00:00 GMT 2014 rshuman American elm Ulmus americana Leaves Changing Color (Late) 44.707910000000000 -73.678620000000000 38200
Fri Oct 17 00:00:00 GMT 2014 rshuman American elm Ulmus americana Leaves Dropping (Early) 44.707910000000000 -73.678620000000000 38201
Fri Oct 17 00:00:00 GMT 2014 rshuman American elm Ulmus americana Flowers (None) 44.707910000000000 -73.678620000000000 38202
Fri Oct 17 00:00:00 GMT 2014 rshuman American elm Ulmus americana Fruit (None) 44.707910000000000 -73.678620000000000 38203
Tue Oct 07 00:00:00 GMT 2014 Juliayu25 American elm Ulmus americana Bud Burst 38.986920000000000 -76.942550000000000 39481
Tue Oct 07 00:00:00 GMT 2014 Juliayu25 American elm Ulmus americana First Leaf 38.986920000000000 -76.942550000000000 39482
Sun Oct 12 00:00:00 GMT 2014 Juliayu25 American elm Ulmus americana All Leaves Unfolded 38.986920000000000 -76.942550000000000 39483
Sun Oct 12 00:00:00 GMT 2014 Juliayu25 American elm Ulmus americana 50% Color 38.986920000000000 -76.942550000000000 39484
Sun Oct 12 00:00:00 GMT 2014 Juliayu25 American elm Ulmus americana 50% Leaf Fall 38.986920000000000 -76.942550000000000 39485
Fri Nov 07 00:00:00 GMT 2014 spentzosinghram_Catherine_Cook_School_reporter22 American elm Ulmus americana Leaves Unfolding (None) 41.907760000000000 -87.635850000000000 39944
Fri Nov 07 00:00:00 GMT 2014 spentzosinghram_Catherine_Cook_School_reporter22 American elm Ulmus americana Leaves Changing Color (Middle) 41.907760000000000 -87.635850000000000 39945
Fri Nov 07 00:00:00 GMT 2014 spentzosinghram_Catherine_Cook_School_reporter22 American elm Ulmus americana Leaves Dropping (Middle) 41.907760000000000 -87.635850000000000 39946
Fri Nov 07 00:00:00 GMT 2014 spentzosinghram_Catherine_Cook_School_reporter22 American elm Ulmus americana Flowers (None) 41.907760000000000 -87.635850000000000 39947
Fri Nov 07 00:00:00 GMT 2014 spentzosinghram_Catherine_Cook_School_reporter22 American elm Ulmus americana Fruit (None) 41.907760000000000 -87.635850000000000 39948
Wed Nov 19 00:00:00 GMT 2014 ryanpleune American elm Ulmus americana 50% Color 40.793051000000000 -111.940062000000000 41056
Wed Nov 19 00:00:00 GMT 2014 ryanpleune American elm Ulmus americana Leaves Unfolding (None) 40.792791000000000 -111.941049000000000 41051
Wed Nov 19 00:00:00 GMT 2014 ryanpleune American elm Ulmus americana Leaves Changing Color (Middle) 40.792791000000000 -111.941049000000000 41052
Wed Nov 19 00:00:00 GMT 2014 ryanpleune American elm Ulmus americana Leaves Dropping (Early) 40.792791000000000 -111.941049000000000 41053
Wed Nov 19 00:00:00 GMT 2014 ryanpleune American elm Ulmus americana Flowers (None) 40.792791000000000 -111.941049000000000 41054
Wed Nov 19 00:00:00 GMT 2014 ryanpleune American elm Ulmus americana Fruit (None) 40.792791000000000 -111.941049000000000 41055
Fri Jan 30 00:00:00 GMT 2015 zevans20 American elm Ulmus americana Leaves Unfolding (None) 35.128684000000000 -106.666195000000000 43199
Fri Jan 30 00:00:00 GMT 2015 zevans20 American elm Ulmus americana Leaves Changing Color (Late) 35.128684000000000 -106.666195000000000 43200
Fri Jan 30 00:00:00 GMT 2015 zevans20 American elm Ulmus americana Leaves Dropping (Late) 35.128684000000000 -106.666195000000000 43201
Fri Jan 30 00:00:00 GMT 2015 zevans20 American elm Ulmus americana Flowers (None) 35.128684000000000 -106.666195000000000 43202
Fri Jan 30 00:00:00 GMT 2015 zevans20 American elm Ulmus americana Fruit (None) 35.128684000000000 -106.666195000000000 43203
Fri Feb 27 00:00:00 GMT 2015 fwitt11 American elm Ulmus americana Leaves Unfolding (None) 35.534206000000000 -98.706686000000000 44406
Fri Feb 27 00:00:00 GMT 2015 fwitt11 American elm Ulmus americana Leaves Changing Color (None) 35.534206000000000 -98.706686000000000 44407
Fri Feb 27 00:00:00 GMT 2015 fwitt11 American elm Ulmus americana Leaves Dropping (None) 35.534206000000000 -98.706686000000000 44408
Fri Feb 27 00:00:00 GMT 2015 fwitt11 American elm Ulmus americana Flowers (None) 35.534206000000000 -98.706686000000000 44409
Fri Feb 27 00:00:00 GMT 2015 fwitt11 American elm Ulmus americana Fruit (Early) 35.534206000000000 -98.706686000000000 44410
Mon Mar 02 00:00:00 GMT 2015 fwitt11 American elm Ulmus americana Leaves Unfolding (None) 35.534171000000000 -98.706558000000000 44521
Mon Mar 02 00:00:00 GMT 2015 fwitt11 American elm Ulmus americana Leaves Changing Color (None) 35.534171000000000 -98.706558000000000 44522
Mon Mar 02 00:00:00 GMT 2015 fwitt11 American elm Ulmus americana Leaves Dropping (None) 35.534171000000000 -98.706558000000000 44523
Mon Mar 02 00:00:00 GMT 2015 fwitt11 American elm Ulmus americana Flowers (None) 35.534171000000000 -98.706558000000000 44524
Mon Mar 02 00:00:00 GMT 2015 fwitt11 American elm Ulmus americana Fruit (None) 35.534171000000000 -98.706558000000000 44525
Thu Mar 26 00:00:00 GMT 2015 hern1770 American elm Ulmus americana Leaves Unfolding (None) 39.533340000000000 -95.148730000000000 45373
Thu Mar 26 00:00:00 GMT 2015 hern1770 American elm Ulmus americana Leaves Changing Color (None) 39.533340000000000 -95.148730000000000 45374
Thu Mar 26 00:00:00 GMT 2015 hern1770 American elm Ulmus americana Leaves Dropping (None) 39.533340000000000 -95.148730000000000 45375
Thu Mar 26 00:00:00 GMT 2015 hern1770 American elm Ulmus americana Flowers (Early) 39.533340000000000 -95.148730000000000 45376
Thu Mar 26 00:00:00 GMT 2015 hern1770 American elm Ulmus americana Fruit (None) 39.533340000000000 -95.148730000000000 45377
Thu Mar 26 00:00:00 GMT 2015 meghan21 American elm Ulmus americana Leaves Unfolding (None) 40.000000000000000 -100.000000000000000 45391
Thu Mar 26 00:00:00 GMT 2015 meghan21 American elm Ulmus americana Leaves Changing Color (None) 40.000000000000000 -100.000000000000000 45392
Thu Mar 26 00:00:00 GMT 2015 meghan21 American elm Ulmus americana Leaves Dropping (None) 40.000000000000000 -100.000000000000000 45393
Thu Mar 26 00:00:00 GMT 2015 meghan21 American elm Ulmus americana Flowers (Middle) 40.000000000000000 -100.000000000000000 45394
Thu Mar 26 00:00:00 GMT 2015 meghan21 American elm Ulmus americana Fruit (None) 40.000000000000000 -100.000000000000000 45395
Thu Apr 02 00:00:00 GMT 2015 fwitt11 American elm Ulmus americana Leaves Unfolding (Middle) 35.534136000000000 -98.706729000000000 45574
Thu Apr 02 00:00:00 GMT 2015 fwitt11 American elm Ulmus americana Leaves Changing Color (None) 35.534136000000000 -98.706729000000000 45575
Thu Apr 02 00:00:00 GMT 2015 fwitt11 American elm Ulmus americana Leaves Dropping (None) 35.534136000000000 -98.706729000000000 45576
Thu Apr 02 00:00:00 GMT 2015 fwitt11 American elm Ulmus americana Flowers (None) 35.534136000000000 -98.706729000000000 45577
Thu Apr 02 00:00:00 GMT 2015 fwitt11 American elm Ulmus americana Fruit (None) 35.534136000000000 -98.706729000000000 45578
Mon Mar 30 00:00:00 GMT 2015 ryanpleune American elm Ulmus americana All Leaves Unfolded 40.793051000000000 -111.940062000000000 45662
Fri Feb 20 00:00:00 GMT 2015 ryanpleune American elm Ulmus americana First Flower 40.793051000000000 -111.940062000000000 45661
Tue Apr 07 00:00:00 GMT 2015 spentzosinghram_Catherine_Cook_School_reporter22 American elm Ulmus americana Leaves Unfolding (None) 41.907760000000000 -87.635850000000000 45743
Tue Apr 07 00:00:00 GMT 2015 spentzosinghram_Catherine_Cook_School_reporter22 American elm Ulmus americana Leaves Changing Color (None) 41.907760000000000 -87.635850000000000 45744
Tue Apr 07 00:00:00 GMT 2015 spentzosinghram_Catherine_Cook_School_reporter22 American elm Ulmus americana Leaves Dropping (None) 41.907760000000000 -87.635850000000000 45745
Tue Apr 07 00:00:00 GMT 2015 spentzosinghram_Catherine_Cook_School_reporter22 American elm Ulmus americana Flowers (None) 41.907760000000000 -87.635850000000000 45746
Tue Apr 07 00:00:00 GMT 2015 spentzosinghram_Catherine_Cook_School_reporter22 American elm Ulmus americana Fruit (None) 41.907760000000000 -87.635850000000000 45747
Thu Jan 01 00:00:00 GMT 2015 Knastos American elm Ulmus americana Bud Burst 39.164345000000000 -86.519945000000000 46252
Sun Mar 01 00:00:00 GMT 2015 easymak29 American elm Ulmus americana Bud Burst 32.773060000000000 -96.640370000000000 47452
Mon Mar 16 00:00:00 GMT 2015 easymak29 American elm Ulmus americana First Leaf 32.773060000000000 -96.640370000000000 47453
Tue Mar 31 00:00:00 GMT 2015 easymak29 American elm Ulmus americana All Leaves Unfolded 32.773060000000000 -96.640370000000000 47454
Tue Apr 07 00:00:00 GMT 2015 easymak29 American elm Ulmus americana First Flower 32.773060000000000 -96.640370000000000 47455
Tue Apr 14 00:00:00 GMT 2015 easymak29 American elm Ulmus americana Full Flower 32.773060000000000 -96.640370000000000 47456
Mon Apr 20 00:00:00 GMT 2015 easymak29 American elm Ulmus americana First Ripe Fruit 32.773060000000000 -96.640370000000000 47457
Thu Apr 23 00:00:00 GMT 2015 easymak29 American elm Ulmus americana Full Fruiting 32.773060000000000 -96.640370000000000 47458
Fri Apr 10 00:00:00 GMT 2015 timstoffel American elm Ulmus americana Bud Burst 43.528576000000000 -88.265083000000000 47626
Sun Apr 12 00:00:00 GMT 2015 timstoffel American elm Ulmus americana First Flower 43.528576000000000 -88.265083000000000 47627
Wed Mar 25 00:00:00 GMT 2015 tml37128 American elm Ulmus americana Bud Burst 41.938041000000000 -87.648304000000000 47829
Wed Apr 15 00:00:00 GMT 2015 tml37128 American elm Ulmus americana First Leaf 41.938041000000000 -87.648304000000000 47830
Thu Apr 23 00:00:00 GMT 2015 tml37128 American elm Ulmus americana All Leaves Unfolded 41.938041000000000 -87.648304000000000 47831
Sun Apr 26 00:00:00 GMT 2015 cheradin American elm Ulmus americana Leaves Unfolding (Early) 41.804078000000000 -87.473145000000000 47888
Sun Apr 26 00:00:00 GMT 2015 cheradin American elm Ulmus americana Leaves Changing Color (None) 41.804078000000000 -87.473145000000000 47889
Sun Apr 26 00:00:00 GMT 2015 cheradin American elm Ulmus americana Leaves Dropping (None) 41.804078000000000 -87.473145000000000 47890
Sun Apr 26 00:00:00 GMT 2015 cheradin American elm Ulmus americana Flowers (Early) 41.804078000000000 -87.473145000000000 47891
Sun Apr 26 00:00:00 GMT 2015 cheradin American elm Ulmus americana Fruit (None) 41.804078000000000 -87.473145000000000 47892
Fri Mar 20 00:00:00 GMT 2015 chelseawender American elm Ulmus americana Leaves Unfolding (None) 41.939760000000000 -87.663810000000000 47916
Fri Mar 20 00:00:00 GMT 2015 chelseawender American elm Ulmus americana Leaves Changing Color (None) 41.939760000000000 -87.663810000000000 47917
Fri Mar 20 00:00:00 GMT 2015 chelseawender American elm Ulmus americana Leaves Dropping (None) 41.939760000000000 -87.663810000000000 47918
Fri Mar 20 00:00:00 GMT 2015 chelseawender American elm Ulmus americana Flowers (None) 41.939760000000000 -87.663810000000000 47919
Fri Mar 20 00:00:00 GMT 2015 chelseawender American elm Ulmus americana Fruit (None) 41.939760000000000 -87.663810000000000 47920
Sun Apr 12 00:00:00 GMT 2015 chelseawender American elm Ulmus americana Leaves Unfolding (None) 41.939760000000000 -87.663810000000000 47921
Sun Apr 12 00:00:00 GMT 2015 chelseawender American elm Ulmus americana Leaves Changing Color (None) 41.939760000000000 -87.663810000000000 47922
Sun Apr 12 00:00:00 GMT 2015 chelseawender American elm Ulmus americana Leaves Dropping (None) 41.939760000000000 -87.663810000000000 47923
Sun Apr 12 00:00:00 GMT 2015 chelseawender American elm Ulmus americana Flowers (None) 41.939760000000000 -87.663810000000000 47924
Sun Apr 12 00:00:00 GMT 2015 chelseawender American elm Ulmus americana Fruit (Middle) 41.939760000000000 -87.663810000000000 47925
Sun Apr 26 00:00:00 GMT 2015 chelseawender American elm Ulmus americana Leaves Unfolding (None) 41.939760000000000 -87.663810000000000 47926
Sun Apr 26 00:00:00 GMT 2015 chelseawender American elm Ulmus americana Leaves Changing Color (None) 41.939760000000000 -87.663810000000000 47927
Sun Apr 26 00:00:00 GMT 2015 chelseawender American elm Ulmus americana Leaves Dropping (None) 41.939760000000000 -87.663810000000000 47928
Sun Apr 26 00:00:00 GMT 2015 chelseawender American elm Ulmus americana Flowers (None) 41.939760000000000 -87.663810000000000 47929
Sun Apr 26 00:00:00 GMT 2015 chelseawender American elm Ulmus americana Fruit (Late) 41.939760000000000 -87.663810000000000 47930
Tue Mar 31 00:00:00 GMT 2015 Backerman American elm Ulmus americana Leaves Unfolding (None) 40.000000000000000 -100.000000000000000 47859
Tue Mar 31 00:00:00 GMT 2015 Backerman American elm Ulmus americana Leaves Changing Color (None) 40.000000000000000 -100.000000000000000 47860
Tue Mar 31 00:00:00 GMT 2015 Backerman American elm Ulmus americana Leaves Dropping (None) 40.000000000000000 -100.000000000000000 47861
Tue Mar 31 00:00:00 GMT 2015 Backerman American elm Ulmus americana Flowers (None) 40.000000000000000 -100.000000000000000 47862
Tue Mar 31 00:00:00 GMT 2015 Backerman American elm Ulmus americana Fruit (None) 40.000000000000000 -100.000000000000000 47863
Sat Mar 14 00:00:00 GMT 2015 baum1557 American elm Ulmus americana Bud Burst 39.576850000000000 -95.110166000000000 48363
Tue Apr 21 00:00:00 GMT 2015 baum1557 American elm Ulmus americana First Leaf 39.576850000000000 -95.110166000000000 48364
Fri Apr 24 00:00:00 GMT 2015 baum1557 American elm Ulmus americana All Leaves Unfolded 39.576850000000000 -95.110166000000000 48365
Sat Mar 28 00:00:00 GMT 2015 baum1557 American elm Ulmus americana First Flower 39.576850000000000 -95.110166000000000 48366
Tue Mar 31 00:00:00 GMT 2015 baum1557 American elm Ulmus americana Full Flower 39.576850000000000 -95.110166000000000 48367
Mon Apr 20 00:00:00 GMT 2015 baum1557 American elm Ulmus americana First Ripe Fruit 39.576850000000000 -95.110166000000000 48368
Tue Aug 11 00:00:00 GMT 2015 Rickirod American elm Ulmus americana Fruit (None) 33.099307000000000 -96.858559000000000 52232
Tue Aug 11 00:00:00 GMT 2015 Rickirod American elm Ulmus americana Leaves Unfolding (Early) 33.099307000000000 -96.858559000000000 52228
Tue Aug 11 00:00:00 GMT 2015 Rickirod American elm Ulmus americana Leaves Changing Color (None) 33.099307000000000 -96.858559000000000 52229
Tue Aug 11 00:00:00 GMT 2015 Rickirod American elm Ulmus americana Leaves Dropping (None) 33.099307000000000 -96.858559000000000 52230
Tue Aug 11 00:00:00 GMT 2015 Rickirod American elm Ulmus americana Flowers (None) 33.099307000000000 -96.858559000000000 52231
Sat Sep 26 00:00:00 GMT 2015 kmvtvt American elm Ulmus americana Leaves Changing Color (Middle) 38.530970000000000 -90.377760000000000 53517
Sat Sep 26 00:00:00 GMT 2015 kmvtvt American elm Ulmus americana Leaves Dropping (Late) 38.530970000000000 -90.377760000000000 53518
Sat Sep 26 00:00:00 GMT 2015 kmvtvt American elm Ulmus americana Fruit (None) 38.530970000000000 -90.377760000000000 53520
Sat Sep 26 00:00:00 GMT 2015 kmvtvt American elm Ulmus americana Leaves Unfolding (Late) 38.530970000000000 -90.377760000000000 53516
Sat Sep 26 00:00:00 GMT 2015 kmvtvt American elm Ulmus americana Flowers (None) 38.530970000000000 -90.377760000000000 53519
Fri Sep 18 00:00:00 GMT 2015 MrsPavlovic_DCS_Trail_-_Red_Oak_Flats_reporter1 American elm Ulmus americana Leaves Unfolding (Late) 41.638680000000000 -87.052570000000000 53686
Fri Sep 18 00:00:00 GMT 2015 MrsPavlovic_DCS_Trail_-_Red_Oak_Flats_reporter1 American elm Ulmus americana Leaves Changing Color (Early) 41.638680000000000 -87.052570000000000 53687
Fri Sep 18 00:00:00 GMT 2015 MrsPavlovic_DCS_Trail_-_Red_Oak_Flats_reporter1 American elm Ulmus americana Leaves Dropping (Middle) 41.638680000000000 -87.052570000000000 53688
Fri Sep 18 00:00:00 GMT 2015 MrsPavlovic_DCS_Trail_-_Red_Oak_Flats_reporter1 American elm Ulmus americana Flowers (None) 41.638680000000000 -87.052570000000000 53689
Fri Sep 18 00:00:00 GMT 2015 MrsPavlovic_DCS_Trail_-_Red_Oak_Flats_reporter1 American elm Ulmus americana Fruit (None) 41.638680000000000 -87.052570000000000 53690
Fri Sep 18 00:00:00 GMT 2015 MrsPavlovic_DCS_Trail_-_Red_Oak_Flats_reporter1 American elm Ulmus americana Leaves Unfolding (Late) 41.638680000000000 -87.052570000000000 53691
Fri Sep 18 00:00:00 GMT 2015 MrsPavlovic_DCS_Trail_-_Red_Oak_Flats_reporter1 American elm Ulmus americana Leaves Changing Color (Early) 41.638680000000000 -87.052570000000000 53692
Fri Sep 18 00:00:00 GMT 2015 MrsPavlovic_DCS_Trail_-_Red_Oak_Flats_reporter1 American elm Ulmus americana Leaves Dropping (Middle) 41.638680000000000 -87.052570000000000 53693
Fri Sep 18 00:00:00 GMT 2015 MrsPavlovic_DCS_Trail_-_Red_Oak_Flats_reporter1 American elm Ulmus americana Flowers (None) 41.638680000000000 -87.052570000000000 53694
Fri Sep 18 00:00:00 GMT 2015 MrsPavlovic_DCS_Trail_-_Red_Oak_Flats_reporter1 American elm Ulmus americana Fruit (None) 41.638680000000000 -87.052570000000000 53695
Mon Oct 05 00:00:00 GMT 2015 MrsPavlovic_DCS_Trail_-_Red_Oak_Flats_reporter1 American elm Ulmus americana Leaves Unfolding (Late) 41.638680000000000 -87.052570000000000 53676
Mon Oct 05 00:00:00 GMT 2015 MrsPavlovic_DCS_Trail_-_Red_Oak_Flats_reporter1 American elm Ulmus americana Leaves Changing Color (Early) 41.638680000000000 -87.052570000000000 53677
Mon Oct 05 00:00:00 GMT 2015 MrsPavlovic_DCS_Trail_-_Red_Oak_Flats_reporter1 American elm Ulmus americana Leaves Dropping (Middle) 41.638680000000000 -87.052570000000000 53678
Mon Oct 05 00:00:00 GMT 2015 MrsPavlovic_DCS_Trail_-_Red_Oak_Flats_reporter1 American elm Ulmus americana Flowers (None) 41.638680000000000 -87.052570000000000 53679
Mon Oct 05 00:00:00 GMT 2015 MrsPavlovic_DCS_Trail_-_Red_Oak_Flats_reporter1 American elm Ulmus americana Fruit (None) 41.638680000000000 -87.052570000000000 53680
Mon Oct 05 00:00:00 GMT 2015 Maclura145 American elm Ulmus americana Leaves Changing Color (Middle) 41.890943000000000 -87.793411000000000 53728
Mon Oct 05 00:00:00 GMT 2015 Maclura145 American elm Ulmus americana Leaves Dropping (Early) 41.890943000000000 -87.793411000000000 53729
Sun Oct 04 00:00:00 GMT 2015 robinv1_Washington_College_reporter37 American elm Ulmus americana 50% Color 39.219200000000000 -76.069600000000000 53751
Fri Oct 09 00:00:00 GMT 2015 kcsnyder American elm Ulmus americana 50% Color 42.439010000000000 -76.490980000000000 54223
Tue Oct 13 00:00:00 GMT 2015 robinv1_Washington_College_reporter51 American elm Ulmus americana Leaves Unfolding (Late) 39.217023000000000 -76.069196000000000 54248
Tue Oct 13 00:00:00 GMT 2015 robinv1_Washington_College_reporter51 American elm Ulmus americana Leaves Changing Color (Early) 39.217023000000000 -76.069196000000000 54249
Tue Oct 13 00:00:00 GMT 2015 robinv1_Washington_College_reporter51 American elm Ulmus americana Leaves Dropping (Early) 39.217023000000000 -76.069196000000000 54250
Tue Oct 13 00:00:00 GMT 2015 robinv1_Washington_College_reporter51 American elm Ulmus americana Flowers (Late) 39.217023000000000 -76.069196000000000 54251
Tue Oct 13 00:00:00 GMT 2015 robinv1_Washington_College_reporter51 American elm Ulmus americana Fruit (None) 39.217023000000000 -76.069196000000000 54252
Sun Oct 18 00:00:00 GMT 2015 TC_HRT145Observer4 American elm Ulmus americana Leaves Unfolding (Late) 41.860588000000000 -87.898280000000000 54430
Sun Oct 18 00:00:00 GMT 2015 TC_HRT145Observer4 American elm Ulmus americana Leaves Changing Color (Late) 41.860588000000000 -87.898280000000000 54431
Sun Oct 18 00:00:00 GMT 2015 TC_HRT145Observer4 American elm Ulmus americana Leaves Dropping (Early) 41.860588000000000 -87.898280000000000 54432
Sun Oct 18 00:00:00 GMT 2015 TC_HRT145Observer4 American elm Ulmus americana Flowers (None) 41.860588000000000 -87.898280000000000 54433
Sun Oct 18 00:00:00 GMT 2015 TC_HRT145Observer4 American elm Ulmus americana Fruit (None) 41.860588000000000 -87.898280000000000 54434
Mon Oct 19 00:00:00 GMT 2015 olivianichols American elm Ulmus americana Leaves Unfolding (Late) 42.849250000000000 -70.925648000000000 54454
Mon Oct 19 00:00:00 GMT 2015 olivianichols American elm Ulmus americana Leaves Changing Color (Early) 42.849250000000000 -70.925648000000000 54455
Mon Oct 19 00:00:00 GMT 2015 peytonbutt American elm Ulmus americana Leaves Unfolding (None) 42.848920000000000 -70.929600000000000 54459
Mon Oct 19 00:00:00 GMT 2015 peytonbutt American elm Ulmus americana Leaves Changing Color (Early) 42.848920000000000 -70.929600000000000 54460
Mon Oct 19 00:00:00 GMT 2015 peytonbutt American elm Ulmus americana Leaves Dropping (Early) 42.848920000000000 -70.929600000000000 54461
Mon Oct 19 00:00:00 GMT 2015 peytonbutt American elm Ulmus americana Flowers (None) 42.848920000000000 -70.929600000000000 54462
Mon Oct 19 00:00:00 GMT 2015 peytonbutt American elm Ulmus americana Fruit (None) 42.848920000000000 -70.929600000000000 54463
Mon Oct 19 00:00:00 GMT 2015 olivianichols American elm Ulmus americana Leaves Dropping (Middle) 42.849250000000000 -70.925648000000000 54456
Mon Oct 19 00:00:00 GMT 2015 olivianichols American elm Ulmus americana Flowers (None) 42.849250000000000 -70.925648000000000 54457
Mon Oct 19 00:00:00 GMT 2015 olivianichols American elm Ulmus americana Fruit (None) 42.849250000000000 -70.925648000000000 54458
Mon Oct 19 00:00:00 GMT 2015 Budburst409 American elm Ulmus americana Leaves Unfolding (Late) 42.849730000000000 -70.927016000000000 54484
Mon Oct 19 00:00:00 GMT 2015 Budburst409 American elm Ulmus americana Leaves Changing Color (Early) 42.849730000000000 -70.927016000000000 54485
Mon Oct 19 00:00:00 GMT 2015 Budburst409 American elm Ulmus americana Leaves Dropping (Early) 42.849730000000000 -70.927016000000000 54486
Mon Oct 19 00:00:00 GMT 2015 Budburst409 American elm Ulmus americana Flowers (None) 42.849730000000000 -70.927016000000000 54487
Mon Oct 19 00:00:00 GMT 2015 Budburst409 American elm Ulmus americana Fruit (None) 42.849730000000000 -70.927016000000000 54488
Mon Oct 19 00:00:00 GMT 2015 Maclura145 American elm Ulmus americana Leaves Unfolding (Late) 41.890929000000000 -87.793411000000000 54542
Mon Oct 19 00:00:00 GMT 2015 Maclura145 American elm Ulmus americana Leaves Changing Color (Middle) 41.890929000000000 -87.793411000000000 54543
Mon Oct 19 00:00:00 GMT 2015 Maclura145 American elm Ulmus americana Leaves Dropping (Middle) 41.890929000000000 -87.793411000000000 54544
Mon Oct 19 00:00:00 GMT 2015 Maclura145 American elm Ulmus americana Flowers (None) 41.890929000000000 -87.793411000000000 54545
Mon Oct 19 00:00:00 GMT 2015 Maclura145 American elm Ulmus americana Fruit (None) 41.890929000000000 -87.793411000000000 54546
Wed Oct 21 00:00:00 GMT 2015 robinv1_Washington_College_reporter51 American elm Ulmus americana Leaves Unfolding (Late) 39.217089000000000 -76.067461000000000 54732
Wed Oct 21 00:00:00 GMT 2015 robinv1_Washington_College_reporter51 American elm Ulmus americana Leaves Changing Color (Middle) 39.217089000000000 -76.067461000000000 54733
Wed Oct 21 00:00:00 GMT 2015 robinv1_Washington_College_reporter51 American elm Ulmus americana Leaves Dropping (Early) 39.217089000000000 -76.067461000000000 54734
Wed Oct 21 00:00:00 GMT 2015 robinv1_Washington_College_reporter51 American elm Ulmus americana Flowers (None) 39.217089000000000 -76.067461000000000 54735
Wed Oct 21 00:00:00 GMT 2015 robinv1_Washington_College_reporter51 American elm Ulmus americana Fruit (None) 39.217089000000000 -76.067461000000000 54736
Tue Oct 20 00:00:00 GMT 2015 kcsnyder American elm Ulmus americana 50% Leaf Fall 42.439010000000000 -76.490980000000000 55255
Mon Nov 02 00:00:00 GMT 2015 AlanaVargas American elm Ulmus americana Leaves Unfolding (Late) 44.698100000000000 -73.631530000000000 55326
Mon Nov 02 00:00:00 GMT 2015 AlanaVargas American elm Ulmus americana Leaves Changing Color (Early) 44.698100000000000 -73.631530000000000 55327
Mon Nov 02 00:00:00 GMT 2015 AlanaVargas American elm Ulmus americana Leaves Dropping (Middle) 44.698100000000000 -73.631530000000000 55328
Mon Nov 02 00:00:00 GMT 2015 AlanaVargas American elm Ulmus americana Flowers (None) 44.698100000000000 -73.631530000000000 55329
Mon Nov 02 00:00:00 GMT 2015 AlanaVargas American elm Ulmus americana Fruit (None) 44.698100000000000 -73.631530000000000 55330
Mon Nov 02 00:00:00 GMT 2015 rshuman American elm Ulmus americana Leaves Unfolding (Early) 44.727670000000000 -73.669590000000000 56432
Mon Nov 02 00:00:00 GMT 2015 rshuman American elm Ulmus americana Leaves Changing Color (Middle) 44.727670000000000 -73.669590000000000 56434
Mon Nov 02 00:00:00 GMT 2015 rshuman American elm Ulmus americana Leaves Dropping (Middle) 44.727670000000000 -73.669590000000000 56435
Mon Nov 02 00:00:00 GMT 2015 rshuman American elm Ulmus americana Flowers (None) 44.727670000000000 -73.669590000000000 56436
Mon Nov 02 00:00:00 GMT 2015 rshuman American elm Ulmus americana Fruit (None) 44.727670000000000 -73.669590000000000 56437
Thu Nov 12 00:00:00 GMT 2015 rabounds American elm Ulmus americana 50% Color 39.167060000000000 -86.512620000000000 57288
Tue Nov 17 00:00:00 GMT 2015 rabounds American elm Ulmus americana Leaves Unfolding (Late) 39.167060000000000 -86.512620000000000 57272
Tue Nov 17 00:00:00 GMT 2015 rabounds American elm Ulmus americana Leaves Changing Color (Middle) 39.167060000000000 -86.512620000000000 57273
Tue Nov 17 00:00:00 GMT 2015 rabounds American elm Ulmus americana Leaves Dropping (Middle) 39.167060000000000 -86.512620000000000 57274
Tue Nov 17 00:00:00 GMT 2015 rabounds American elm Ulmus americana Flowers (None) 39.167060000000000 -86.512620000000000 57275
Tue Nov 17 00:00:00 GMT 2015 rabounds American elm Ulmus americana Fruit (None) 39.167060000000000 -86.512620000000000 57276
Thu Oct 08 00:00:00 GMT 2015 nwccStudent94 American elm Ulmus americana Bud Burst 41.935760000000000 -73.111360000000000 58328
Thu Oct 08 00:00:00 GMT 2015 nwccStudent94 American elm Ulmus americana First Leaf 41.935760000000000 -73.111360000000000 58329
Thu Oct 08 00:00:00 GMT 2015 nwccStudent94 American elm Ulmus americana All Leaves Unfolded 41.935760000000000 -73.111360000000000 58330
Tue Oct 27 00:00:00 GMT 2015 nwccStudent94 American elm Ulmus americana 50% Color 41.935760000000000 -73.111360000000000 58331
Fri Nov 27 00:00:00 GMT 2015 nwccStudent94 American elm Ulmus americana 50% Leaf Fall 41.935760000000000 -73.111360000000000 58332
Mon Sep 28 00:00:00 GMT 2015 robinv1_Washington_College_reporter53 American elm Ulmus americana Bud Burst 39.219200000000000 -76.069600000000000 58861
Mon Nov 23 00:00:00 GMT 2015 robinv1_Washington_College_reporter53 American elm Ulmus americana All Leaves Unfolded 39.219200000000000 -76.069600000000000 58862
Mon Nov 09 00:00:00 GMT 2015 robinv1_Washington_College_reporter53 American elm Ulmus americana 50% Color 39.219200000000000 -76.069600000000000 58863
Mon Nov 09 00:00:00 GMT 2015 robinv1_Washington_College_reporter53 American elm Ulmus americana 50% Leaf Fall 39.219200000000000 -76.069600000000000 58864
Tue Sep 29 00:00:00 GMT 2015 robinv1_Washington_College_reporter34 American elm Ulmus americana Leaves Unfolding (None) 39.217300000000000 -76.068650000000000 58968
Tue Sep 29 00:00:00 GMT 2015 robinv1_Washington_College_reporter34 American elm Ulmus americana Leaves Changing Color (Early) 39.217300000000000 -76.068650000000000 58969
Tue Sep 29 00:00:00 GMT 2015 robinv1_Washington_College_reporter34 American elm Ulmus americana Leaves Dropping (None) 39.217300000000000 -76.068650000000000 58970
Tue Sep 29 00:00:00 GMT 2015 robinv1_Washington_College_reporter34 American elm Ulmus americana Flowers (None) 39.217300000000000 -76.068650000000000 58971
Tue Sep 29 00:00:00 GMT 2015 robinv1_Washington_College_reporter34 American elm Ulmus americana Fruit (None) 39.217300000000000 -76.068650000000000 58972
Tue Oct 06 00:00:00 GMT 2015 robinv1_Washington_College_reporter34 American elm Ulmus americana Leaves Unfolding (None) 39.217300000000000 -76.068650000000000 58988
Tue Oct 06 00:00:00 GMT 2015 robinv1_Washington_College_reporter34 American elm Ulmus americana Leaves Changing Color (Early) 39.217300000000000 -76.068650000000000 58989
Tue Oct 06 00:00:00 GMT 2015 robinv1_Washington_College_reporter34 American elm Ulmus americana Leaves Dropping (None) 39.217300000000000 -76.068650000000000 58990
Tue Oct 06 00:00:00 GMT 2015 robinv1_Washington_College_reporter34 American elm Ulmus americana Leaves Unfolding (None) 39.217300000000000 -76.068650000000000 58991
Tue Oct 06 00:00:00 GMT 2015 robinv1_Washington_College_reporter34 American elm Ulmus americana Flowers (None) 39.217300000000000 -76.068650000000000 58992
Tue Oct 06 00:00:00 GMT 2015 robinv1_Washington_College_reporter34 American elm Ulmus americana Leaves Changing Color (Early) 39.217300000000000 -76.068650000000000 58993
Tue Oct 06 00:00:00 GMT 2015 robinv1_Washington_College_reporter34 American elm Ulmus americana Fruit (None) 39.217300000000000 -76.068650000000000 58994
Tue Oct 06 00:00:00 GMT 2015 robinv1_Washington_College_reporter34 American elm Ulmus americana Leaves Dropping (None) 39.217300000000000 -76.068650000000000 58995
Tue Oct 06 00:00:00 GMT 2015 robinv1_Washington_College_reporter34 American elm Ulmus americana Flowers (None) 39.217300000000000 -76.068650000000000 58996
Tue Oct 06 00:00:00 GMT 2015 robinv1_Washington_College_reporter34 American elm Ulmus americana Fruit (None) 39.217300000000000 -76.068650000000000 58997
Tue Oct 13 00:00:00 GMT 2015 robinv1_Washington_College_reporter34 American elm Ulmus americana Leaves Unfolding (None) 39.217300000000000 -76.068650000000000 59013
Tue Oct 13 00:00:00 GMT 2015 robinv1_Washington_College_reporter34 American elm Ulmus americana Leaves Changing Color (Early) 39.217300000000000 -76.068650000000000 59014
Tue Oct 13 00:00:00 GMT 2015 robinv1_Washington_College_reporter34 American elm Ulmus americana Leaves Dropping (Early) 39.217300000000000 -76.068650000000000 59015
Tue Oct 13 00:00:00 GMT 2015 robinv1_Washington_College_reporter34 American elm Ulmus americana Flowers (None) 39.217300000000000 -76.068650000000000 59016
Tue Oct 13 00:00:00 GMT 2015 robinv1_Washington_College_reporter34 American elm Ulmus americana Fruit (None) 39.217300000000000 -76.068650000000000 59017
Tue Oct 20 00:00:00 GMT 2015 robinv1_Washington_College_reporter34 American elm Ulmus americana Leaves Unfolding (None) 39.217300000000000 -76.068650000000000 59028
Tue Oct 20 00:00:00 GMT 2015 robinv1_Washington_College_reporter34 American elm Ulmus americana Leaves Changing Color (Early) 39.217300000000000 -76.068650000000000 59029
Tue Oct 20 00:00:00 GMT 2015 robinv1_Washington_College_reporter34 American elm Ulmus americana Leaves Dropping (Early) 39.217300000000000 -76.068650000000000 59030
Tue Oct 20 00:00:00 GMT 2015 robinv1_Washington_College_reporter34 American elm Ulmus americana Flowers (None) 39.217300000000000 -76.068650000000000 59031
Tue Oct 20 00:00:00 GMT 2015 robinv1_Washington_College_reporter34 American elm Ulmus americana Fruit (None) 39.217300000000000 -76.068650000000000 59032
Tue Oct 27 00:00:00 GMT 2015 robinv1_Washington_College_reporter34 American elm Ulmus americana Leaves Unfolding (None) 39.217300000000000 -76.068650000000000 59033
Tue Oct 27 00:00:00 GMT 2015 robinv1_Washington_College_reporter34 American elm Ulmus americana Leaves Changing Color (Middle) 39.217300000000000 -76.068650000000000 59034
Tue Oct 27 00:00:00 GMT 2015 robinv1_Washington_College_reporter34 American elm Ulmus americana Leaves Dropping (Early) 39.217300000000000 -76.068650000000000 59035
Tue Oct 27 00:00:00 GMT 2015 robinv1_Washington_College_reporter34 American elm Ulmus americana Flowers (None) 39.217300000000000 -76.068650000000000 59036
Tue Oct 27 00:00:00 GMT 2015 robinv1_Washington_College_reporter34 American elm Ulmus americana Fruit (None) 39.217300000000000 -76.068650000000000 59037
Tue Nov 03 00:00:00 GMT 2015 robinv1_Washington_College_reporter34 American elm Ulmus americana Leaves Unfolding (None) 39.217300000000000 -76.068650000000000 59048
Tue Nov 03 00:00:00 GMT 2015 robinv1_Washington_College_reporter34 American elm Ulmus americana Leaves Changing Color (Middle) 39.217300000000000 -76.068650000000000 59049
Tue Nov 03 00:00:00 GMT 2015 robinv1_Washington_College_reporter34 American elm Ulmus americana Leaves Dropping (Middle) 39.217300000000000 -76.068650000000000 59050
Tue Nov 03 00:00:00 GMT 2015 robinv1_Washington_College_reporter34 American elm Ulmus americana Flowers (None) 39.217300000000000 -76.068650000000000 59051
Tue Nov 03 00:00:00 GMT 2015 robinv1_Washington_College_reporter34 American elm Ulmus americana Fruit (None) 39.217300000000000 -76.068650000000000 59052
Tue Nov 17 00:00:00 GMT 2015 robinv1_Washington_College_reporter34 American elm Ulmus americana Leaves Unfolding (None) 39.217300000000000 -76.068650000000000 59058
Tue Nov 17 00:00:00 GMT 2015 robinv1_Washington_College_reporter34 American elm Ulmus americana Leaves Changing Color (Late) 39.217300000000000 -76.068650000000000 59059
Tue Nov 17 00:00:00 GMT 2015 robinv1_Washington_College_reporter34 American elm Ulmus americana Leaves Dropping (Middle) 39.217300000000000 -76.068650000000000 59060
Tue Nov 17 00:00:00 GMT 2015 robinv1_Washington_College_reporter34 American elm Ulmus americana Flowers (None) 39.217300000000000 -76.068650000000000 59061
Tue Nov 17 00:00:00 GMT 2015 robinv1_Washington_College_reporter34 American elm Ulmus americana Fruit (None) 39.217300000000000 -76.068650000000000 59062
Tue Nov 17 00:00:00 GMT 2015 robinv1_Washington_College_reporter34 American elm Ulmus americana Leaves Unfolding (None) 39.217300000000000 -76.068650000000000 59068
Tue Nov 17 00:00:00 GMT 2015 robinv1_Washington_College_reporter34 American elm Ulmus americana Leaves Changing Color (Middle) 39.217300000000000 -76.068650000000000 59069
Tue Nov 17 00:00:00 GMT 2015 robinv1_Washington_College_reporter34 American elm Ulmus americana Leaves Dropping (Early) 39.217300000000000 -76.068650000000000 59070
Tue Nov 17 00:00:00 GMT 2015 robinv1_Washington_College_reporter34 American elm Ulmus americana Flowers (None) 39.217300000000000 -76.068650000000000 59071
Tue Nov 17 00:00:00 GMT 2015 robinv1_Washington_College_reporter34 American elm Ulmus americana Fruit (None) 39.217300000000000 -76.068650000000000 59072
Tue Dec 01 00:00:00 GMT 2015 robinv1_Washington_College_reporter34 American elm Ulmus americana Leaves Unfolding (None) 39.217300000000000 -76.068650000000000 59078
Tue Dec 01 00:00:00 GMT 2015 robinv1_Washington_College_reporter34 American elm Ulmus americana Leaves Changing Color (Late) 39.217300000000000 -76.068650000000000 59079
Tue Dec 01 00:00:00 GMT 2015 robinv1_Washington_College_reporter34 American elm Ulmus americana Leaves Dropping (Late) 39.217300000000000 -76.068650000000000 59080
Tue Dec 01 00:00:00 GMT 2015 robinv1_Washington_College_reporter34 American elm Ulmus americana Flowers (None) 39.217300000000000 -76.068650000000000 59081
Tue Dec 01 00:00:00 GMT 2015 robinv1_Washington_College_reporter34 American elm Ulmus americana Fruit (None) 39.217300000000000 -76.068650000000000 59082
Sun Oct 04 00:00:00 GMT 2015 robinv1_Washington_College_reporter49 American elm Ulmus americana Leaves Unfolding (None) 39.218860000000000 -76.068000000000000 59345
Sun Oct 04 00:00:00 GMT 2015 robinv1_Washington_College_reporter49 American elm Ulmus americana Leaves Changing Color (None) 39.218860000000000 -76.068000000000000 59346
Sun Oct 04 00:00:00 GMT 2015 robinv1_Washington_College_reporter49 American elm Ulmus americana Leaves Dropping (None) 39.218860000000000 -76.068000000000000 59347
Sun Oct 04 00:00:00 GMT 2015 robinv1_Washington_College_reporter49 American elm Ulmus americana Flowers (Early) 39.218860000000000 -76.068000000000000 59348
Sun Oct 04 00:00:00 GMT 2015 robinv1_Washington_College_reporter49 American elm Ulmus americana Fruit (Early) 39.218860000000000 -76.068000000000000 59349
Sun Oct 11 00:00:00 GMT 2015 robinv1_Washington_College_reporter49 American elm Ulmus americana Leaves Unfolding (None) 39.218860000000000 -76.068000000000000 59355
Sun Oct 11 00:00:00 GMT 2015 robinv1_Washington_College_reporter49 American elm Ulmus americana Leaves Changing Color (Early) 39.218860000000000 -76.068000000000000 59356
Sun Oct 11 00:00:00 GMT 2015 robinv1_Washington_College_reporter49 American elm Ulmus americana Leaves Dropping (Early) 39.218860000000000 -76.068000000000000 59357
Sun Oct 11 00:00:00 GMT 2015 robinv1_Washington_College_reporter49 American elm Ulmus americana Flowers (Early) 39.218860000000000 -76.068000000000000 59358
Sun Oct 11 00:00:00 GMT 2015 robinv1_Washington_College_reporter49 American elm Ulmus americana Fruit (Middle) 39.218860000000000 -76.068000000000000 59359
Sun Oct 18 00:00:00 GMT 2015 robinv1_Washington_College_reporter49 American elm Ulmus americana Leaves Unfolding (None) 39.218860000000000 -76.068000000000000 59370
Sun Oct 18 00:00:00 GMT 2015 robinv1_Washington_College_reporter49 American elm Ulmus americana Leaves Changing Color (Middle) 39.218860000000000 -76.068000000000000 59371
Sun Oct 18 00:00:00 GMT 2015 robinv1_Washington_College_reporter49 American elm Ulmus americana Leaves Dropping (Early) 39.218860000000000 -76.068000000000000 59372
Sun Oct 18 00:00:00 GMT 2015 robinv1_Washington_College_reporter49 American elm Ulmus americana Flowers (Middle) 39.218860000000000 -76.068000000000000 59373
Sun Oct 18 00:00:00 GMT 2015 robinv1_Washington_College_reporter49 American elm Ulmus americana Fruit (Middle) 39.218860000000000 -76.068000000000000 59374
Sun Oct 25 00:00:00 GMT 2015 robinv1_Washington_College_reporter49 American elm Ulmus americana Leaves Unfolding (None) 39.218860000000000 -76.068000000000000 59385
Sun Oct 25 00:00:00 GMT 2015 robinv1_Washington_College_reporter49 American elm Ulmus americana Leaves Changing Color (Middle) 39.218860000000000 -76.068000000000000 59386
Sun Oct 25 00:00:00 GMT 2015 robinv1_Washington_College_reporter49 American elm Ulmus americana Leaves Dropping (Middle) 39.218860000000000 -76.068000000000000 59387
Sun Oct 25 00:00:00 GMT 2015 robinv1_Washington_College_reporter49 American elm Ulmus americana Flowers (Middle) 39.218860000000000 -76.068000000000000 59388
Sun Oct 25 00:00:00 GMT 2015 robinv1_Washington_College_reporter49 American elm Ulmus americana Fruit (Middle) 39.218860000000000 -76.068000000000000 59389
Sun Nov 01 00:00:00 GMT 2015 robinv1_Washington_College_reporter49 American elm Ulmus americana Leaves Unfolding (None) 39.218860000000000 -76.068000000000000 59390
Sun Nov 01 00:00:00 GMT 2015 robinv1_Washington_College_reporter49 American elm Ulmus americana Leaves Changing Color (Middle) 39.218860000000000 -76.068000000000000 59391
Sun Nov 01 00:00:00 GMT 2015 robinv1_Washington_College_reporter49 American elm Ulmus americana Leaves Dropping (Middle) 39.218860000000000 -76.068000000000000 59392
Sun Nov 01 00:00:00 GMT 2015 robinv1_Washington_College_reporter49 American elm Ulmus americana Flowers (Middle) 39.218860000000000 -76.068000000000000 59393
Sun Nov 01 00:00:00 GMT 2015 robinv1_Washington_College_reporter49 American elm Ulmus americana Fruit (Middle) 39.218860000000000 -76.068000000000000 59394
Sun Nov 08 00:00:00 GMT 2015 robinv1_Washington_College_reporter49 American elm Ulmus americana Leaves Unfolding (None) 39.218860000000000 -76.068000000000000 59395
Sun Nov 08 00:00:00 GMT 2015 robinv1_Washington_College_reporter49 American elm Ulmus americana Leaves Changing Color (Middle) 39.218860000000000 -76.068000000000000 59396
Sun Nov 08 00:00:00 GMT 2015 robinv1_Washington_College_reporter49 American elm Ulmus americana Leaves Dropping (Middle) 39.218860000000000 -76.068000000000000 59397
Sun Nov 08 00:00:00 GMT 2015 robinv1_Washington_College_reporter49 American elm Ulmus americana Flowers (Middle) 39.218860000000000 -76.068000000000000 59398
Sun Nov 08 00:00:00 GMT 2015 robinv1_Washington_College_reporter49 American elm Ulmus americana Fruit (Middle) 39.218860000000000 -76.068000000000000 59399
Sun Nov 15 00:00:00 GMT 2015 robinv1_Washington_College_reporter49 American elm Ulmus americana Leaves Unfolding (None) 39.218860000000000 -76.068000000000000 59400
Sun Nov 15 00:00:00 GMT 2015 robinv1_Washington_College_reporter49 American elm Ulmus americana Leaves Changing Color (Middle) 39.218860000000000 -76.068000000000000 59401
Sun Nov 15 00:00:00 GMT 2015 robinv1_Washington_College_reporter49 American elm Ulmus americana Leaves Dropping (Middle) 39.218860000000000 -76.068000000000000 59402
Sun Nov 15 00:00:00 GMT 2015 robinv1_Washington_College_reporter49 American elm Ulmus americana Flowers (Late) 39.218860000000000 -76.068000000000000 59403
Sun Nov 15 00:00:00 GMT 2015 robinv1_Washington_College_reporter49 American elm Ulmus americana Fruit (Middle) 39.218860000000000 -76.068000000000000 59404
Sun Nov 29 00:00:00 GMT 2015 robinv1_Washington_College_reporter49 American elm Ulmus americana Leaves Unfolding (None) 39.218860000000000 -76.068000000000000 59407
Sun Nov 29 00:00:00 GMT 2015 robinv1_Washington_College_reporter49 American elm Ulmus americana Leaves Changing Color (Late) 39.218860000000000 -76.068000000000000 59408
Sun Nov 29 00:00:00 GMT 2015 robinv1_Washington_College_reporter49 American elm Ulmus americana Leaves Dropping (Late) 39.218860000000000 -76.068000000000000 59409
Sun Nov 29 00:00:00 GMT 2015 robinv1_Washington_College_reporter49 American elm Ulmus americana Flowers (Late) 39.218860000000000 -76.068000000000000 59410
Sun Nov 29 00:00:00 GMT 2015 robinv1_Washington_College_reporter49 American elm Ulmus americana Fruit (Late) 39.218860000000000 -76.068000000000000 59411
Sun Dec 06 00:00:00 GMT 2015 robinv1_Washington_College_reporter49 American elm Ulmus americana Leaves Unfolding (None) 39.218860000000000 -76.068000000000000 59415
Sun Dec 06 00:00:00 GMT 2015 robinv1_Washington_College_reporter49 American elm Ulmus americana Leaves Changing Color (Late) 39.218860000000000 -76.068000000000000 59416
Sun Dec 06 00:00:00 GMT 2015 robinv1_Washington_College_reporter49 American elm Ulmus americana Leaves Dropping (Late) 39.218860000000000 -76.068000000000000 59417
Sun Dec 06 00:00:00 GMT 2015 robinv1_Washington_College_reporter49 American elm Ulmus americana Flowers (Late) 39.218860000000000 -76.068000000000000 59418
Sun Dec 06 00:00:00 GMT 2015 robinv1_Washington_College_reporter49 American elm Ulmus americana Fruit (Late) 39.218860000000000 -76.068000000000000 59419
Mon Sep 28 00:00:00 GMT 2015 robinv1_Washington_College_reporter59 American elm Ulmus americana Leaves Unfolding (None) 39.218870000000000 -76.069000000000000 59665
Mon Sep 28 00:00:00 GMT 2015 robinv1_Washington_College_reporter59 American elm Ulmus americana Leaves Changing Color (None) 39.218870000000000 -76.069000000000000 59666
Mon Sep 28 00:00:00 GMT 2015 robinv1_Washington_College_reporter59 American elm Ulmus americana Leaves Dropping (None) 39.218870000000000 -76.069000000000000 59667
Mon Sep 28 00:00:00 GMT 2015 robinv1_Washington_College_reporter59 American elm Ulmus americana Flowers (None) 39.218870000000000 -76.069000000000000 59668
Mon Sep 28 00:00:00 GMT 2015 robinv1_Washington_College_reporter59 American elm Ulmus americana Fruit (None) 39.218870000000000 -76.069000000000000 59669
Mon Oct 05 00:00:00 GMT 2015 robinv1_Washington_College_reporter59 American elm Ulmus americana Leaves Unfolding (None) 39.218870000000000 -76.069000000000000 59670
Mon Oct 05 00:00:00 GMT 2015 robinv1_Washington_College_reporter59 American elm Ulmus americana Leaves Changing Color (None) 39.218870000000000 -76.069000000000000 59671
Mon Oct 05 00:00:00 GMT 2015 robinv1_Washington_College_reporter59 American elm Ulmus americana Leaves Dropping (None) 39.218870000000000 -76.069000000000000 59672
Mon Oct 05 00:00:00 GMT 2015 robinv1_Washington_College_reporter59 American elm Ulmus americana Flowers (None) 39.218870000000000 -76.069000000000000 59673
Mon Oct 05 00:00:00 GMT 2015 robinv1_Washington_College_reporter59 American elm Ulmus americana Fruit (None) 39.218870000000000 -76.069000000000000 59674
Mon Oct 12 00:00:00 GMT 2015 robinv1_Washington_College_reporter59 American elm Ulmus americana Leaves Unfolding (Early) 39.218870000000000 -76.069000000000000 59878
Mon Oct 12 00:00:00 GMT 2015 robinv1_Washington_College_reporter59 American elm Ulmus americana Leaves Changing Color (Early) 39.218870000000000 -76.069000000000000 59879
Mon Oct 12 00:00:00 GMT 2015 robinv1_Washington_College_reporter59 American elm Ulmus americana Leaves Dropping (Early) 39.218870000000000 -76.069000000000000 59880
Mon Oct 12 00:00:00 GMT 2015 robinv1_Washington_College_reporter59 American elm Ulmus americana Flowers (None) 39.218870000000000 -76.069000000000000 59881
Mon Oct 12 00:00:00 GMT 2015 robinv1_Washington_College_reporter59 American elm Ulmus americana Fruit (None) 39.218870000000000 -76.069000000000000 59882
Mon Oct 19 00:00:00 GMT 2015 robinv1_Washington_College_reporter59 American elm Ulmus americana Leaves Unfolding (Early) 39.218870000000000 -76.069000000000000 59948
Mon Oct 19 00:00:00 GMT 2015 robinv1_Washington_College_reporter59 American elm Ulmus americana Leaves Changing Color (Early) 39.218870000000000 -76.069000000000000 59949
Mon Oct 19 00:00:00 GMT 2015 robinv1_Washington_College_reporter59 American elm Ulmus americana Leaves Dropping (Early) 39.218870000000000 -76.069000000000000 59950
Mon Oct 19 00:00:00 GMT 2015 robinv1_Washington_College_reporter59 American elm Ulmus americana Flowers (None) 39.218870000000000 -76.069000000000000 59951
Mon Oct 19 00:00:00 GMT 2015 robinv1_Washington_College_reporter59 American elm Ulmus americana Fruit (None) 39.218870000000000 -76.069000000000000 59952
Mon Oct 26 00:00:00 GMT 2015 robinv1_Washington_College_reporter59 American elm Ulmus americana Leaves Unfolding (Early) 39.218870000000000 -76.069000000000000 59958
Mon Oct 26 00:00:00 GMT 2015 robinv1_Washington_College_reporter59 American elm Ulmus americana Leaves Changing Color (Early) 39.218870000000000 -76.069000000000000 59959
Mon Oct 26 00:00:00 GMT 2015 robinv1_Washington_College_reporter59 American elm Ulmus americana Leaves Dropping (Early) 39.218870000000000 -76.069000000000000 59960
Mon Oct 26 00:00:00 GMT 2015 robinv1_Washington_College_reporter59 American elm Ulmus americana Flowers (None) 39.218870000000000 -76.069000000000000 59961
Mon Oct 26 00:00:00 GMT 2015 robinv1_Washington_College_reporter59 American elm Ulmus americana Fruit (None) 39.218870000000000 -76.069000000000000 59962
Mon Nov 02 00:00:00 GMT 2015 robinv1_Washington_College_reporter59 American elm Ulmus americana Leaves Unfolding (Early) 39.218870000000000 -76.069000000000000 59988
Mon Nov 02 00:00:00 GMT 2015 robinv1_Washington_College_reporter59 American elm Ulmus americana Leaves Changing Color (Early) 39.218870000000000 -76.069000000000000 59989
Mon Nov 02 00:00:00 GMT 2015 robinv1_Washington_College_reporter59 American elm Ulmus americana Leaves Dropping (Early) 39.218870000000000 -76.069000000000000 59990
Mon Nov 02 00:00:00 GMT 2015 robinv1_Washington_College_reporter59 American elm Ulmus americana Flowers (None) 39.218870000000000 -76.069000000000000 59991
Mon Nov 02 00:00:00 GMT 2015 robinv1_Washington_College_reporter59 American elm Ulmus americana Fruit (None) 39.218870000000000 -76.069000000000000 59992
Mon Nov 09 00:00:00 GMT 2015 robinv1_Washington_College_reporter59 American elm Ulmus americana Leaves Unfolding (Middle) 39.218870000000000 -76.069000000000000 60003
Mon Nov 09 00:00:00 GMT 2015 robinv1_Washington_College_reporter59 American elm Ulmus americana Leaves Changing Color (Middle) 39.218870000000000 -76.069000000000000 60004
Mon Nov 09 00:00:00 GMT 2015 robinv1_Washington_College_reporter59 American elm Ulmus americana Leaves Dropping (Middle) 39.218870000000000 -76.069000000000000 60005
Mon Nov 09 00:00:00 GMT 2015 robinv1_Washington_College_reporter59 American elm Ulmus americana Flowers (None) 39.218870000000000 -76.069000000000000 60006
Mon Nov 09 00:00:00 GMT 2015 robinv1_Washington_College_reporter59 American elm Ulmus americana Fruit (None) 39.218870000000000 -76.069000000000000 60007
Mon Nov 30 00:00:00 GMT 2015 robinv1_Washington_College_reporter59 American elm Ulmus americana Leaves Unfolding (Late) 39.218870000000000 -76.069000000000000 60023
Mon Nov 30 00:00:00 GMT 2015 robinv1_Washington_College_reporter59 American elm Ulmus americana Leaves Changing Color (Late) 39.218870000000000 -76.069000000000000 60024
Mon Nov 30 00:00:00 GMT 2015 robinv1_Washington_College_reporter59 American elm Ulmus americana Leaves Dropping (Late) 39.218870000000000 -76.069000000000000 60025
Mon Nov 30 00:00:00 GMT 2015 robinv1_Washington_College_reporter59 American elm Ulmus americana Flowers (None) 39.218870000000000 -76.069000000000000 60026
Mon Nov 30 00:00:00 GMT 2015 robinv1_Washington_College_reporter59 American elm Ulmus americana Fruit (None) 39.218870000000000 -76.069000000000000 60027
Mon Oct 05 00:00:00 GMT 2015 robinv1_Washington_College_reporter59 American elm Ulmus americana Leaves Unfolding (None) 39.218870000000000 -76.069000000000000 60101
Mon Oct 05 00:00:00 GMT 2015 robinv1_Washington_College_reporter59 American elm Ulmus americana Leaves Changing Color (None) 39.218870000000000 -76.069000000000000 60102
Mon Oct 05 00:00:00 GMT 2015 robinv1_Washington_College_reporter59 American elm Ulmus americana Leaves Dropping (None) 39.218870000000000 -76.069000000000000 60103
Mon Oct 05 00:00:00 GMT 2015 robinv1_Washington_College_reporter59 American elm Ulmus americana Flowers (None) 39.218870000000000 -76.069000000000000 60104
Mon Oct 05 00:00:00 GMT 2015 robinv1_Washington_College_reporter59 American elm Ulmus americana Fruit (None) 39.218870000000000 -76.069000000000000 60105
Mon Oct 12 00:00:00 GMT 2015 robinv1_Washington_College_reporter59 American elm Ulmus americana Leaves Unfolding (Early) 39.218870000000000 -76.069000000000000 60116
Mon Oct 12 00:00:00 GMT 2015 robinv1_Washington_College_reporter59 American elm Ulmus americana Leaves Changing Color (Early) 39.218870000000000 -76.069000000000000 60117
Mon Oct 12 00:00:00 GMT 2015 robinv1_Washington_College_reporter59 American elm Ulmus americana Leaves Dropping (Early) 39.218870000000000 -76.069000000000000 60118
Mon Oct 12 00:00:00 GMT 2015 robinv1_Washington_College_reporter59 American elm Ulmus americana Flowers (None) 39.218870000000000 -76.069000000000000 60119
Mon Oct 12 00:00:00 GMT 2015 robinv1_Washington_College_reporter59 American elm Ulmus americana Fruit (None) 39.218870000000000 -76.069000000000000 60120
Mon Oct 19 00:00:00 GMT 2015 robinv1_Washington_College_reporter59 American elm Ulmus americana Leaves Unfolding (Early) 39.218870000000000 -76.069000000000000 60195
Mon Oct 19 00:00:00 GMT 2015 robinv1_Washington_College_reporter59 American elm Ulmus americana Leaves Changing Color (Early) 39.218870000000000 -76.069000000000000 60197
Mon Oct 19 00:00:00 GMT 2015 robinv1_Washington_College_reporter59 American elm Ulmus americana Leaves Dropping (Early) 39.218870000000000 -76.069000000000000 60198
Mon Oct 19 00:00:00 GMT 2015 robinv1_Washington_College_reporter59 American elm Ulmus americana Flowers (None) 39.218870000000000 -76.069000000000000 60199
Mon Oct 19 00:00:00 GMT 2015 robinv1_Washington_College_reporter59 American elm Ulmus americana Fruit (None) 39.218870000000000 -76.069000000000000 60200
Mon Oct 26 00:00:00 GMT 2015 robinv1_Washington_College_reporter59 American elm Ulmus americana Leaves Unfolding (Middle) 39.218870000000000 -76.069000000000000 60216
Mon Oct 26 00:00:00 GMT 2015 robinv1_Washington_College_reporter59 American elm Ulmus americana Leaves Changing Color (Middle) 39.218870000000000 -76.069000000000000 60217
Mon Oct 26 00:00:00 GMT 2015 robinv1_Washington_College_reporter59 American elm Ulmus americana Leaves Dropping (Middle) 39.218870000000000 -76.069000000000000 60218
Mon Oct 26 00:00:00 GMT 2015 robinv1_Washington_College_reporter59 American elm Ulmus americana Flowers (None) 39.218870000000000 -76.069000000000000 60219
Mon Oct 26 00:00:00 GMT 2015 robinv1_Washington_College_reporter59 American elm Ulmus americana Fruit (None) 39.218870000000000 -76.069000000000000 60220
Mon Nov 09 00:00:00 GMT 2015 robinv1_Washington_College_reporter59 American elm Ulmus americana Leaves Unfolding (Middle) 39.218870000000000 -76.069000000000000 60251
Mon Nov 09 00:00:00 GMT 2015 robinv1_Washington_College_reporter59 American elm Ulmus americana Leaves Changing Color (Middle) 39.218870000000000 -76.069000000000000 60252
Mon Nov 09 00:00:00 GMT 2015 robinv1_Washington_College_reporter59 American elm Ulmus americana Leaves Dropping (Middle) 39.218870000000000 -76.069000000000000 60253
Mon Nov 09 00:00:00 GMT 2015 robinv1_Washington_College_reporter59 American elm Ulmus americana Flowers (None) 39.218870000000000 -76.069000000000000 60254
Mon Nov 09 00:00:00 GMT 2015 robinv1_Washington_College_reporter59 American elm Ulmus americana Fruit (None) 39.218870000000000 -76.069000000000000 60255
Fri Oct 16 00:00:00 GMT 2015 robinv1_Washington_College_reporter51 American elm Ulmus americana Leaves Unfolding (Late) 39.217012000000000 -76.069168000000000 60366
Fri Oct 16 00:00:00 GMT 2015 robinv1_Washington_College_reporter51 American elm Ulmus americana Leaves Changing Color (Middle) 39.217012000000000 -76.069168000000000 60367
Fri Oct 16 00:00:00 GMT 2015 robinv1_Washington_College_reporter51 American elm Ulmus americana Leaves Dropping (Early) 39.217012000000000 -76.069168000000000 60368
Fri Oct 16 00:00:00 GMT 2015 robinv1_Washington_College_reporter51 American elm Ulmus americana Flowers (None) 39.217012000000000 -76.069168000000000 60369
Fri Oct 16 00:00:00 GMT 2015 robinv1_Washington_College_reporter51 American elm Ulmus americana Fruit (None) 39.217012000000000 -76.069168000000000 60370
Fri Oct 23 00:00:00 GMT 2015 robinv1_Washington_College_reporter51 American elm Ulmus americana Leaves Unfolding (Late) 39.217010000000000 -76.069180000000000 60376
Fri Oct 23 00:00:00 GMT 2015 robinv1_Washington_College_reporter51 American elm Ulmus americana Leaves Changing Color (Middle) 39.217010000000000 -76.069180000000000 60377
Fri Oct 23 00:00:00 GMT 2015 robinv1_Washington_College_reporter51 American elm Ulmus americana Leaves Dropping (Early) 39.217010000000000 -76.069180000000000 60378
Fri Oct 23 00:00:00 GMT 2015 robinv1_Washington_College_reporter51 American elm Ulmus americana Flowers (None) 39.217010000000000 -76.069180000000000 60379
Fri Oct 23 00:00:00 GMT 2015 robinv1_Washington_College_reporter51 American elm Ulmus americana Fruit (None) 39.217010000000000 -76.069180000000000 60380
Fri Oct 30 00:00:00 GMT 2015 robinv1_Washington_College_reporter51 American elm Ulmus americana Leaves Unfolding (Late) 39.217010000000000 -76.069159000000000 60381
Fri Oct 30 00:00:00 GMT 2015 robinv1_Washington_College_reporter51 American elm Ulmus americana Leaves Changing Color (Middle) 39.217010000000000 -76.069159000000000 60382
Fri Oct 30 00:00:00 GMT 2015 robinv1_Washington_College_reporter51 American elm Ulmus americana Leaves Dropping (Middle) 39.217010000000000 -76.069159000000000 60383
Fri Oct 30 00:00:00 GMT 2015 robinv1_Washington_College_reporter51 American elm Ulmus americana Flowers (None) 39.217010000000000 -76.069159000000000 60384
Fri Oct 30 00:00:00 GMT 2015 robinv1_Washington_College_reporter51 American elm Ulmus americana Fruit (None) 39.217010000000000 -76.069159000000000 60385
Fri Nov 06 00:00:00 GMT 2015 robinv1_Washington_College_reporter51 American elm Ulmus americana Leaves Unfolding (Late) 39.216969000000000 -76.069180000000000 60386
Fri Nov 06 00:00:00 GMT 2015 robinv1_Washington_College_reporter51 American elm Ulmus americana Leaves Changing Color (Middle) 39.216969000000000 -76.069180000000000 60387
Fri Nov 06 00:00:00 GMT 2015 robinv1_Washington_College_reporter51 American elm Ulmus americana Leaves Dropping (Middle) 39.216969000000000 -76.069180000000000 60388
Fri Nov 06 00:00:00 GMT 2015 robinv1_Washington_College_reporter51 American elm Ulmus americana Flowers (None) 39.216969000000000 -76.069180000000000 60389
Fri Nov 06 00:00:00 GMT 2015 robinv1_Washington_College_reporter51 American elm Ulmus americana Fruit (None) 39.216969000000000 -76.069180000000000 60390
Fri Nov 13 00:00:00 GMT 2015 robinv1_Washington_College_reporter51 American elm Ulmus americana Leaves Unfolding (Late) 39.216977000000000 -76.069159000000000 60396
Fri Nov 13 00:00:00 GMT 2015 robinv1_Washington_College_reporter51 American elm Ulmus americana Leaves Changing Color (Late) 39.216977000000000 -76.069159000000000 60397
Fri Nov 13 00:00:00 GMT 2015 robinv1_Washington_College_reporter51 American elm Ulmus americana Leaves Dropping (Middle) 39.216977000000000 -76.069159000000000 60398
Fri Nov 13 00:00:00 GMT 2015 robinv1_Washington_College_reporter51 American elm Ulmus americana Flowers (None) 39.216977000000000 -76.069159000000000 60399
Fri Nov 13 00:00:00 GMT 2015 robinv1_Washington_College_reporter51 American elm Ulmus americana Fruit (None) 39.216977000000000 -76.069159000000000 60400
Fri Nov 20 00:00:00 GMT 2015 robinv1_Washington_College_reporter51 American elm Ulmus americana Leaves Unfolding (Late) 39.217029000000000 -76.069192000000000 60401
Fri Nov 20 00:00:00 GMT 2015 robinv1_Washington_College_reporter51 American elm Ulmus americana Leaves Changing Color (Late) 39.217029000000000 -76.069192000000000 60402
Fri Nov 20 00:00:00 GMT 2015 robinv1_Washington_College_reporter51 American elm Ulmus americana Leaves Dropping (Middle) 39.217029000000000 -76.069192000000000 60403
Fri Nov 20 00:00:00 GMT 2015 robinv1_Washington_College_reporter51 American elm Ulmus americana Flowers (None) 39.217029000000000 -76.069192000000000 60404
Fri Nov 20 00:00:00 GMT 2015 robinv1_Washington_College_reporter51 American elm Ulmus americana Fruit (None) 39.217029000000000 -76.069192000000000 60405
Fri Nov 27 00:00:00 GMT 2015 robinv1_Washington_College_reporter51 American elm Ulmus americana Leaves Unfolding (Late) 39.216960000000000 -76.069159000000000 60411
Fri Nov 27 00:00:00 GMT 2015 robinv1_Washington_College_reporter51 American elm Ulmus americana Leaves Changing Color (Late) 39.216960000000000 -76.069159000000000 60412
Fri Nov 27 00:00:00 GMT 2015 robinv1_Washington_College_reporter51 American elm Ulmus americana Leaves Dropping (Late) 39.216960000000000 -76.069159000000000 60413
Fri Nov 27 00:00:00 GMT 2015 robinv1_Washington_College_reporter51 American elm Ulmus americana Flowers (None) 39.216960000000000 -76.069159000000000 60414
Fri Nov 27 00:00:00 GMT 2015 robinv1_Washington_College_reporter51 American elm Ulmus americana Fruit (None) 39.216960000000000 -76.069159000000000 60415
Fri Dec 04 00:00:00 GMT 2015 robinv1_Washington_College_reporter51 American elm Ulmus americana Leaves Unfolding (Late) 39.217006000000000 -76.069183000000000 60416
Fri Dec 04 00:00:00 GMT 2015 robinv1_Washington_College_reporter51 American elm Ulmus americana Leaves Changing Color (Late) 39.217006000000000 -76.069183000000000 60417
Fri Dec 04 00:00:00 GMT 2015 robinv1_Washington_College_reporter51 American elm Ulmus americana Leaves Dropping (Late) 39.217006000000000 -76.069183000000000 60418
Fri Dec 04 00:00:00 GMT 2015 robinv1_Washington_College_reporter51 American elm Ulmus americana Flowers (None) 39.217006000000000 -76.069183000000000 60419
Fri Dec 04 00:00:00 GMT 2015 robinv1_Washington_College_reporter51 American elm Ulmus americana Fruit (None) 39.217006000000000 -76.069183000000000 60420
Sun Oct 04 00:00:00 GMT 2015 robinv1_Washington_College_reporter62 American elm Ulmus americana Leaves Unfolding (Late) 39.217300000000000 -76.068650000000000 60666
Sun Oct 04 00:00:00 GMT 2015 robinv1_Washington_College_reporter62 American elm Ulmus americana Leaves Changing Color (None) 39.217300000000000 -76.068650000000000 60667
Sun Oct 04 00:00:00 GMT 2015 robinv1_Washington_College_reporter62 American elm Ulmus americana Leaves Dropping (None) 39.217300000000000 -76.068650000000000 60668
Sun Oct 04 00:00:00 GMT 2015 robinv1_Washington_College_reporter62 American elm Ulmus americana Flowers (None) 39.217300000000000 -76.068650000000000 60669
Sun Oct 04 00:00:00 GMT 2015 robinv1_Washington_College_reporter62 American elm Ulmus americana Fruit (None) 39.217300000000000 -76.068650000000000 60670
Sun Oct 11 00:00:00 GMT 2015 robinv1_Washington_College_reporter62 American elm Ulmus americana Leaves Unfolding (Late) 39.217300000000000 -76.068650000000000 60671
Sun Oct 11 00:00:00 GMT 2015 robinv1_Washington_College_reporter62 American elm Ulmus americana Leaves Changing Color (None) 39.217300000000000 -76.068650000000000 60672
Sun Oct 11 00:00:00 GMT 2015 robinv1_Washington_College_reporter62 American elm Ulmus americana Leaves Dropping (None) 39.217300000000000 -76.068650000000000 60673
Sun Oct 11 00:00:00 GMT 2015 robinv1_Washington_College_reporter62 American elm Ulmus americana Flowers (None) 39.217300000000000 -76.068650000000000 60674
Sun Oct 11 00:00:00 GMT 2015 robinv1_Washington_College_reporter62 American elm Ulmus americana Fruit (None) 39.217300000000000 -76.068650000000000 60675
Sun Oct 18 00:00:00 GMT 2015 robinv1_Washington_College_reporter62 American elm Ulmus americana Leaves Unfolding (Late) 39.217300000000000 -76.068650000000000 60676
Sun Oct 18 00:00:00 GMT 2015 robinv1_Washington_College_reporter62 American elm Ulmus americana Leaves Changing Color (Early) 39.217300000000000 -76.068650000000000 60677
Sun Oct 18 00:00:00 GMT 2015 robinv1_Washington_College_reporter62 American elm Ulmus americana Leaves Dropping (None) 39.217300000000000 -76.068650000000000 60678
Sun Oct 18 00:00:00 GMT 2015 robinv1_Washington_College_reporter62 American elm Ulmus americana Flowers (None) 39.217300000000000 -76.068650000000000 60679
Sun Oct 18 00:00:00 GMT 2015 robinv1_Washington_College_reporter62 American elm Ulmus americana Fruit (None) 39.217300000000000 -76.068650000000000 60680
Sun Oct 25 00:00:00 GMT 2015 robinv1_Washington_College_reporter62 American elm Ulmus americana Leaves Unfolding (Late) 39.217300000000000 -76.068650000000000 60681
Sun Oct 25 00:00:00 GMT 2015 robinv1_Washington_College_reporter62 American elm Ulmus americana Leaves Changing Color (Early) 39.217300000000000 -76.068650000000000 60682
Sun Oct 25 00:00:00 GMT 2015 robinv1_Washington_College_reporter62 American elm Ulmus americana Leaves Dropping (Early) 39.217300000000000 -76.068650000000000 60683
Sun Oct 25 00:00:00 GMT 2015 robinv1_Washington_College_reporter62 American elm Ulmus americana Flowers (None) 39.217300000000000 -76.068650000000000 60684
Sun Oct 25 00:00:00 GMT 2015 robinv1_Washington_College_reporter62 American elm Ulmus americana Fruit (None) 39.217300000000000 -76.068650000000000 60685
Sun Nov 01 00:00:00 GMT 2015 robinv1_Washington_College_reporter62 American elm Ulmus americana Leaves Unfolding (Late) 39.217300000000000 -76.068650000000000 60686
Sun Nov 01 00:00:00 GMT 2015 robinv1_Washington_College_reporter62 American elm Ulmus americana Leaves Changing Color (Middle) 39.217300000000000 -76.068650000000000 60687
Sun Nov 01 00:00:00 GMT 2015 robinv1_Washington_College_reporter62 American elm Ulmus americana Leaves Dropping (Early) 39.217300000000000 -76.068650000000000 60688
Sun Nov 01 00:00:00 GMT 2015 robinv1_Washington_College_reporter62 American elm Ulmus americana Flowers (None) 39.217300000000000 -76.068650000000000 60689
Sun Nov 01 00:00:00 GMT 2015 robinv1_Washington_College_reporter62 American elm Ulmus americana Fruit (None) 39.217300000000000 -76.068650000000000 60690
Sun Nov 08 00:00:00 GMT 2015 robinv1_Washington_College_reporter62 American elm Ulmus americana Leaves Unfolding (Late) 39.217300000000000 -76.068650000000000 60691
Sun Nov 08 00:00:00 GMT 2015 robinv1_Washington_College_reporter62 American elm Ulmus americana Leaves Changing Color (Middle) 39.217300000000000 -76.068650000000000 60692
Sun Nov 08 00:00:00 GMT 2015 robinv1_Washington_College_reporter62 American elm Ulmus americana Leaves Dropping (Middle) 39.217300000000000 -76.068650000000000 60693
Sun Nov 08 00:00:00 GMT 2015 robinv1_Washington_College_reporter62 American elm Ulmus americana Flowers (None) 39.217300000000000 -76.068650000000000 60694
Sun Nov 08 00:00:00 GMT 2015 robinv1_Washington_College_reporter62 American elm Ulmus americana Fruit (None) 39.217300000000000 -76.068650000000000 60695
Sun Nov 15 00:00:00 GMT 2015 robinv1_Washington_College_reporter62 American elm Ulmus americana Leaves Unfolding (Late) 39.217300000000000 -76.068650000000000 60696
Sun Nov 15 00:00:00 GMT 2015 robinv1_Washington_College_reporter62 American elm Ulmus americana Leaves Changing Color (Middle) 39.217300000000000 -76.068650000000000 60697
Sun Nov 15 00:00:00 GMT 2015 robinv1_Washington_College_reporter62 American elm Ulmus americana Leaves Dropping (Middle) 39.217300000000000 -76.068650000000000 60698
Sun Nov 15 00:00:00 GMT 2015 robinv1_Washington_College_reporter62 American elm Ulmus americana Flowers (None) 39.217300000000000 -76.068650000000000 60699
Sun Nov 15 00:00:00 GMT 2015 robinv1_Washington_College_reporter62 American elm Ulmus americana Fruit (None) 39.217300000000000 -76.068650000000000 60700
Sun Dec 06 00:00:00 GMT 2015 robinv1_Washington_College_reporter62 American elm Ulmus americana Leaves Unfolding (None) 39.217300000000000 -76.068650000000000 60701
Sun Dec 06 00:00:00 GMT 2015 robinv1_Washington_College_reporter62 American elm Ulmus americana Leaves Changing Color (Late) 39.217300000000000 -76.068650000000000 60702
Sun Dec 06 00:00:00 GMT 2015 robinv1_Washington_College_reporter62 American elm Ulmus americana Leaves Dropping (Late) 39.217300000000000 -76.068650000000000 60703
Sun Dec 06 00:00:00 GMT 2015 robinv1_Washington_College_reporter62 American elm Ulmus americana Flowers (None) 39.217300000000000 -76.068650000000000 60704
Sun Dec 06 00:00:00 GMT 2015 robinv1_Washington_College_reporter62 American elm Ulmus americana Fruit (None) 39.217300000000000 -76.068650000000000 60705
Tue Nov 17 00:00:00 GMT 2015 robinv1_Washington_College_reporter37 American elm Ulmus americana 50% Leaf Fall 39.219200000000000 -76.069600000000000 60729
Tue Jan 17 00:00:00 GMT 2017 galindoalec American elm Ulmus americana Leaves Unfolding (None) 39.790300000000000 -105.032200000000000 74534
Tue Jan 17 00:00:00 GMT 2017 galindoalec American elm Ulmus americana Leaves Changing Color (None) 39.790300000000000 -105.032200000000000 74535
Tue Jan 17 00:00:00 GMT 2017 galindoalec American elm Ulmus americana Leaves Dropping (Late) 39.790300000000000 -105.032200000000000 74536
Tue Jan 17 00:00:00 GMT 2017 galindoalec American elm Ulmus americana Flowers (None) 39.790300000000000 -105.032200000000000 74537
Tue Jan 17 00:00:00 GMT 2017 galindoalec American elm Ulmus americana Fruit (None) 39.790300000000000 -105.032200000000000 74538
Fri Feb 17 00:00:00 GMT 2017 bthomps1 American elm Ulmus americana First Flower 38.195980000000000 -85.534280000000000 75032
Fri Feb 24 00:00:00 GMT 2017 bthomps1 American elm Ulmus americana Full Flower 38.195980000000000 -85.534280000000000 75066
Wed Mar 01 00:00:00 GMT 2017 pitm American elm Ulmus americana Leaves Unfolding (None) 39.790600000000000 -76.891894000000000 75169
Wed Mar 01 00:00:00 GMT 2017 pitm American elm Ulmus americana Leaves Changing Color (None) 39.790600000000000 -76.891894000000000 75170
Wed Mar 01 00:00:00 GMT 2017 pitm American elm Ulmus americana Leaves Dropping (None) 39.790600000000000 -76.891894000000000 75171
Wed Mar 01 00:00:00 GMT 2017 pitm American elm Ulmus americana Flowers (Middle) 39.790600000000000 -76.891894000000000 75172
Wed Mar 01 00:00:00 GMT 2017 pitm American elm Ulmus americana Fruit (None) 39.790600000000000 -76.891894000000000 75173
Fri Mar 03 00:00:00 GMT 2017 elen2 American elm Ulmus americana Bud Burst 38.988535000000000 -94.813857000000000 75480
Thu Mar 16 00:00:00 GMT 2017 elen2 American elm Ulmus americana First Leaf 38.988535000000000 -94.813857000000000 75644
Mon Mar 20 00:00:00 GMT 2017 chernandez006 American elm Ulmus americana Leaves Unfolding (Middle) 39.790300000000000 -105.032200000000000 76038
Mon Mar 20 00:00:00 GMT 2017 chernandez006 American elm Ulmus americana Leaves Changing Color (None) 39.790300000000000 -105.032200000000000 76039
Mon Mar 20 00:00:00 GMT 2017 chernandez006 American elm Ulmus americana Leaves Dropping (None) 39.790300000000000 -105.032200000000000 76040
Mon Mar 20 00:00:00 GMT 2017 chernandez006 American elm Ulmus americana Flowers (None) 39.790300000000000 -105.032200000000000 76041
Mon Mar 20 00:00:00 GMT 2017 chernandez006 American elm Ulmus americana Fruit (None) 39.790300000000000 -105.032200000000000 76042
Tue Mar 14 00:00:00 GMT 2017 athrock American elm Ulmus americana First Flower 41.114538000000000 -80.320616000000000 76222
Fri Mar 03 00:00:00 GMT 2017 elen2 American elm Ulmus americana First Flower 38.988535000000000 -94.813857000000000 76369
Thu Mar 23 00:00:00 GMT 2017 elen2 American elm Ulmus americana Full Flower 38.988535000000000 -94.813857000000000 76370

*All downloadable materials require the free Adobe Reader.